EIN53 EIDW-KSEA

Flight info

Callsign EIN53
Flight time 9h 14m
Altitude 38000
Route SUROX3J SUROX DCT REVNU DCT SUNOT/M081F390 NATB NIFTY/M081F400 DCT MIBNO/N0477F400 DCT TUNNI DCT 60N080W DCT YYQ DCT YMM J527 YZU DCT LONRO DCT YDC DCT JAKSN
Aircraft A332/H-SDE3GHIJ2J3J5M1RVWXY/LB2D1

Departure

Time 2026-05-07 10:15
Airport Dublin Airport (EIDW)

Arrival

Time 2026-05-07 19:30
Airport Seattle–Tacoma International Airport (KSEA)
Time Latitude Longitude Altitude Speed Heading
2026-05-07 10:15 53.67861 -6.54597 10182 ft 361 kts 318°
2026-05-07 10:15 53.69770 -6.57252 11431 ft 352 kts 318°
2026-05-07 10:15 53.71664 -6.59891 12402 ft 353 kts 318°
2026-05-07 10:16 53.73568 -6.62548 13262 ft 356 kts 318°
2026-05-07 10:16 53.75483 -6.65226 14048 ft 360 kts 318°
2026-05-07 10:16 53.77421 -6.67940 14761 ft 364 kts 318°
2026-05-07 10:16 53.79385 -6.70692 15443 ft 369 kts 318°
2026-05-07 10:17 53.81358 -6.73464 15844 ft 381 kts 318°
2026-05-07 10:17 53.83445 -6.76400 15937 ft 401 kts 318°
2026-05-07 10:17 53.85645 -6.79501 15945 ft 422 kts 318°
2026-05-07 10:17 53.87952 -6.82754 15948 ft 441 kts 318°
2026-05-07 10:18 53.90287 -6.86044 17042 ft 418 kts 318°
2026-05-07 10:18 53.92350 -6.88916 18845 ft 349 kts 318°
2026-05-07 10:18 53.94116 -6.91336 20306 ft 310 kts 318°
2026-05-07 10:18 53.95738 -6.93595 21298 ft 297 kts 316°
2026-05-07 10:19 53.97305 -6.95939 21578 ft 304 kts 312°
2026-05-07 10:19 53.98704 -6.98595 21617 ft 306 kts 303°
2026-05-07 10:19 53.99838 -7.01702 21779 ft 314 kts 292°
2026-05-07 10:19 54.00672 -7.05182 21957 ft 323 kts 285°
2026-05-07 10:20 54.01364 -7.08870 22141 ft 332 kts 283°
2026-05-07 10:20 54.01995 -7.12711 22322 ft 342 kts 281°
2026-05-07 10:20 54.02610 -7.16681 22508 ft 352 kts 281°
2026-05-07 10:20 54.03237 -7.20769 22691 ft 362 kts 281°
2026-05-07 10:21 54.03889 -7.24959 22893 ft 371 kts 281°
2026-05-07 10:21 54.04567 -7.29248 23077 ft 380 kts 282°
2026-05-07 10:21 54.05270 -7.33633 23247 ft 389 kts 282°
2026-05-07 10:21 54.05993 -7.38123 23438 ft 398 kts 282°
2026-05-07 10:22 54.06482 -7.41143 23539 ft 403 kts 282°
2026-05-07 10:22 54.07233 -7.45796 23676 ft 412 kts 282°
2026-05-07 10:22 54.07996 -7.50530 23911 ft 416 kts 282°
2026-05-07 10:22 54.08763 -7.55298 24224 ft 419 kts 282°
2026-05-07 10:23 54.09533 -7.60095 24551 ft 421 kts 282°
2026-05-07 10:23 54.10301 -7.64905 24880 ft 423 kts 282°
2026-05-07 10:23 54.11074 -7.69766 25203 ft 425 kts 282°
2026-05-07 10:23 54.11846 -7.74633 25515 ft 426 kts 282°
2026-05-07 10:24 54.12618 -7.79524 25832 ft 428 kts 282°
2026-05-07 10:24 54.13392 -7.84444 26150 ft 430 kts 282°
2026-05-07 10:24 54.14167 -7.89384 26454 ft 432 kts 282°
2026-05-07 10:24 54.14943 -7.94345 26760 ft 434 kts 282°
2026-05-07 10:25 54.15721 -7.99334 27085 ft 436 kts 281°
2026-05-07 10:25 54.16489 -8.04277 27378 ft 438 kts 281°
2026-05-07 10:25 54.17269 -8.09311 27673 ft 440 kts 281°
2026-05-07 10:25 54.18050 -8.14366 27958 ft 442 kts 281°
2026-05-07 10:26 54.18834 -8.19451 28236 ft 444 kts 281°
2026-05-07 10:26 54.19617 -8.24552 28506 ft 445 kts 281°
2026-05-07 10:26 54.20403 -8.29685 28789 ft 447 kts 281°
2026-05-07 10:26 54.21190 -8.34835 29087 ft 449 kts 281°
2026-05-07 10:27 54.21974 -8.39983 29494 ft 448 kts 281°
2026-05-07 10:27 54.22758 -8.45145 29807 ft 450 kts 281°
2026-05-07 10:27 54.23541 -8.50332 30038 ft 452 kts 281°
2026-05-07 10:27 54.24325 -8.55540 30286 ft 453 kts 280°
2026-05-07 10:28 54.25111 -8.60772 30503 ft 455 kts 280°
2026-05-07 10:28 54.25896 -8.66015 30733 ft 456 kts 280°
2026-05-07 10:28 54.26683 -8.71288 30964 ft 458 kts 280°
2026-05-07 10:28 54.27468 -8.76569 31165 ft 459 kts 280°
2026-05-07 10:29 54.28254 -8.81870 31373 ft 460 kts 280°
2026-05-07 10:29 54.29038 -8.87181 31559 ft 461 kts 280°
2026-05-07 10:29 54.29824 -8.92515 31808 ft 462 kts 280°
2026-05-07 10:30 54.31374 -9.03083 32416 ft 459 kts 280°
2026-05-07 10:30 54.32146 -9.08379 32703 ft 458 kts 280°
2026-05-07 10:30 54.32915 -9.13667 33004 ft 457 kts 279°
2026-05-07 10:30 54.33680 -9.18948 33277 ft 456 kts 279°
2026-05-07 10:31 54.34440 -9.24219 33542 ft 455 kts 279°
2026-05-07 10:31 54.35196 -9.29484 33792 ft 455 kts 279°
2026-05-07 10:31 54.35950 -9.34743 34017 ft 454 kts 279°
2026-05-07 10:31 54.36701 -9.40003 34242 ft 454 kts 279°
2026-05-07 10:32 54.37448 -9.45251 34444 ft 453 kts 279°
2026-05-07 10:32 54.38192 -9.50499 34678 ft 452 kts 279°
2026-05-07 10:32 54.38929 -9.55710 35032 ft 448 kts 279°
2026-05-07 10:32 54.39660 -9.60893 35255 ft 447 kts 279°
2026-05-07 10:33 54.40388 -9.66080 35421 ft 447 kts 279°
2026-05-07 10:33 54.41115 -9.71279 35556 ft 448 kts 279°
2026-05-07 10:33 54.41839 -9.76475 35710 ft 448 kts 279°
2026-05-07 10:33 54.42562 -9.81683 35867 ft 448 kts 279°
2026-05-07 10:34 54.43283 -9.86892 36043 ft 448 kts 279°
2026-05-07 10:34 54.44002 -9.92101 36200 ft 448 kts 279°
2026-05-07 10:34 54.44718 -9.97312 36353 ft 448 kts 279°
2026-05-07 10:34 54.45457 -10.02511 36501 ft 449 kts 282°
2026-05-07 10:35 54.46486 -10.07602 36648 ft 453 kts 289°
2026-05-07 10:35 54.47929 -10.12446 36787 ft 458 kts 298°
2026-05-07 10:35 54.49809 -10.16895 36937 ft 463 kts 307°
2026-05-07 10:35 54.51933 -10.20969 37089 ft 464 kts 309°
2026-05-07 10:36 54.54164 -10.24982 37257 ft 464 kts 310°
2026-05-07 10:36 54.56427 -10.28925 37405 ft 464 kts 311°
2026-05-07 10:36 54.58707 -10.32856 37604 ft 463 kts 311°
2026-05-07 10:36 54.60978 -10.36778 37807 ft 461 kts 311°
2026-05-07 10:37 54.65504 -10.44675 37876 ft 464 kts 310°
2026-05-07 10:37 54.70017 -10.52639 37875 ft 463 kts 310°
2026-05-07 10:38 54.74510 -10.60617 37870 ft 463 kts 310°
2026-05-07 10:38 54.78990 -10.68601 37867 ft 463 kts 310°
2026-05-07 10:39 54.83470 -10.76609 37864 ft 462 kts 310°
2026-05-07 10:39 54.87943 -10.84630 37864 ft 462 kts 310°
2026-05-07 10:40 54.92407 -10.92662 37856 ft 462 kts 309°
2026-05-07 10:40 54.96835 -11.00657 37856 ft 462 kts 309°
2026-05-07 10:41 55.01286 -11.08718 37853 ft 461 kts 309°
2026-05-07 10:41 55.05716 -11.16770 37858 ft 460 kts 309°
2026-05-07 10:42 55.10136 -11.24832 37834 ft 459 kts 309°
2026-05-07 10:42 55.14548 -11.32907 37852 ft 459 kts 309°
2026-05-07 10:43 55.18945 -11.40995 37848 ft 459 kts 309°
2026-05-07 10:43 55.23343 -11.49115 37847 ft 459 kts 309°
2026-05-07 10:44 55.27732 -11.57235 37831 ft 459 kts 309°
2026-05-07 10:44 55.32121 -11.65378 37831 ft 459 kts 309°
2026-05-07 10:45 55.36502 -11.73534 37822 ft 459 kts 309°
2026-05-07 10:45 55.40848 -11.81652 37822 ft 459 kts 309°
2026-05-07 10:46 55.45213 -11.89837 37819 ft 459 kts 309°
2026-05-07 10:46 55.49580 -11.98054 37817 ft 459 kts 309°
2026-05-07 10:47 55.53933 -12.06272 37811 ft 459 kts 309°
2026-05-07 10:47 55.58288 -12.14521 37813 ft 459 kts 309°
2026-05-07 10:48 55.62635 -12.22786 37817 ft 459 kts 309°
2026-05-07 10:48 55.66971 -12.31058 37811 ft 459 kts 308°
2026-05-07 10:49 55.71309 -12.39362 37806 ft 459 kts 308°
2026-05-07 10:49 55.75646 -12.47695 37807 ft 460 kts 308°
2026-05-07 10:50 55.79991 -12.56073 37798 ft 461 kts 308°
2026-05-07 10:50 55.84335 -12.64477 37799 ft 461 kts 308°
2026-05-07 10:51 55.88671 -12.72896 37793 ft 461 kts 308°
2026-05-07 10:51 55.92999 -12.81329 37803 ft 461 kts 308°
2026-05-07 10:52 55.97324 -12.89787 37788 ft 461 kts 308°
2026-05-07 10:52 56.01641 -12.98260 37788 ft 461 kts 308°
2026-05-07 10:53 56.05956 -13.06758 37782 ft 461 kts 308°
2026-05-07 10:53 56.10232 -13.15211 37782 ft 461 kts 308°
2026-05-07 10:54 56.14533 -13.23744 37785 ft 461 kts 308°
2026-05-07 10:54 56.18824 -13.32286 37771 ft 460 kts 308°
2026-05-07 10:55 56.23103 -13.40837 37771 ft 460 kts 308°
2026-05-07 10:55 56.27375 -13.49403 37771 ft 460 kts 308°
2026-05-07 10:56 56.31642 -13.57992 37760 ft 460 kts 308°
2026-05-07 10:56 56.35901 -13.66595 37787 ft 460 kts 308°
2026-05-07 10:57 56.40156 -13.75222 37762 ft 460 kts 307°
2026-05-07 10:57 56.44401 -13.83858 37761 ft 460 kts 307°
2026-05-07 10:58 56.48614 -13.92462 37742 ft 460 kts 307°
2026-05-07 10:58 56.52847 -14.01138 37766 ft 460 kts 307°
2026-05-07 10:59 56.57072 -14.09830 37746 ft 459 kts 307°
2026-05-07 10:59 56.61284 -14.18527 37753 ft 459 kts 307°
2026-05-07 11:00 56.65489 -14.27239 37753 ft 458 kts 307°
2026-05-07 11:00 56.69682 -14.35962 37755 ft 458 kts 307°
2026-05-07 11:01 56.73872 -14.44710 37751 ft 458 kts 307°
2026-05-07 11:01 56.78059 -14.53482 37750 ft 458 kts 307°
2026-05-07 11:02 56.82232 -14.62259 37757 ft 458 kts 307°
2026-05-07 11:02 56.86400 -14.71059 37763 ft 458 kts 307°
2026-05-07 11:03 56.90562 -14.79875 37762 ft 458 kts 307°
2026-05-07 11:03 56.94712 -14.88698 37752 ft 456 kts 307°
2026-05-07 11:04 56.98759 -14.97610 37761 ft 452 kts 301°
2026-05-07 11:04 57.01713 -15.07659 37798 ft 447 kts 291°
2026-05-07 11:05 57.04134 -15.18067 37770 ft 444 kts 288°
2026-05-07 11:05 57.06451 -15.28596 37794 ft 446 kts 288°
2026-05-07 11:06 57.08762 -15.39137 37783 ft 445 kts 288°
2026-05-07 11:06 57.11088 -15.49711 37786 ft 447 kts 289°
2026-05-07 11:07 57.13427 -15.60347 37797 ft 449 kts 288°
2026-05-07 11:07 57.15745 -15.70923 37802 ft 443 kts 289°
2026-05-07 11:08 57.18044 -15.81482 37800 ft 445 kts 288°
2026-05-07 11:08 57.20327 -15.92023 37815 ft 440 kts 288°
2026-05-07 11:09 57.22582 -16.02493 37826 ft 440 kts 288°
2026-05-07 11:09 57.24846 -16.13059 37853 ft 444 kts 288°
2026-05-07 11:10 57.27102 -16.23641 37836 ft 443 kts 289°
2026-05-07 11:10 57.29361 -16.34295 37840 ft 446 kts 289°
2026-05-07 11:11 57.31618 -16.44980 37868 ft 445 kts 288°
2026-05-07 11:11 57.33845 -16.55582 37860 ft 441 kts 289°
2026-05-07 11:12 57.36063 -16.66204 37866 ft 442 kts 288°
2026-05-07 11:12 57.38260 -16.76775 37879 ft 437 kts 288°
2026-05-07 11:13 57.40415 -16.87211 37874 ft 438 kts 289°
2026-05-07 11:13 57.42595 -16.97822 37874 ft 441 kts 288°
2026-05-07 11:14 57.44773 -17.08482 37898 ft 444 kts 289°
2026-05-07 11:14 57.46968 -17.19262 37900 ft 448 kts 289°
2026-05-07 11:15 57.49148 -17.30023 37909 ft 441 kts 289°
2026-05-07 11:15 57.51303 -17.40728 37920 ft 442 kts 288°
2026-05-07 11:16 57.53077 -17.49588 37910 ft 438 kts 289°
2026-05-07 11:16 57.55201 -17.60254 37921 ft 439 kts 289°
2026-05-07 11:17 57.57326 -17.70980 37939 ft 442 kts 288°
2026-05-07 11:17 57.59444 -17.81730 37935 ft 443 kts 289°
2026-05-07 11:18 57.61573 -17.92594 37954 ft 449 kts 288°
2026-05-07 11:18 57.63701 -18.03497 37947 ft 443 kts 289°
2026-05-07 11:19 57.65801 -18.14324 37956 ft 444 kts 288°
2026-05-07 11:19 57.67874 -18.25080 37958 ft 437 kts 288°
2026-05-07 11:20 57.69929 -18.35806 37977 ft 440 kts 289°
2026-05-07 11:20 57.71996 -18.46649 37966 ft 443 kts 289°
2026-05-07 11:21 57.74063 -18.57554 37973 ft 446 kts 289°
2026-05-07 11:21 57.76132 -18.68533 37977 ft 447 kts 288°
2026-05-07 11:22 57.78185 -18.79482 37985 ft 446 kts 288°
2026-05-07 11:22 57.80227 -18.90438 37980 ft 443 kts 288°
2026-05-07 11:23 57.82240 -19.01304 37983 ft 441 kts 288°
2026-05-07 11:23 57.84253 -19.12234 37993 ft 445 kts 288°
2026-05-07 11:24 57.86269 -19.23243 38008 ft 448 kts 288°
2026-05-07 11:24 57.88281 -19.34294 37995 ft 450 kts 288°
2026-05-07 11:25 57.90298 -19.45436 38011 ft 447 kts 288°
2026-05-07 11:25 57.92273 -19.56408 38012 ft 444 kts 288°
2026-05-07 11:26 57.94237 -19.67392 38015 ft 443 kts 288°
2026-05-07 11:26 57.96200 -19.78430 38020 ft 446 kts 288°
2026-05-07 11:27 57.98163 -19.89536 38023 ft 448 kts 288°
2026-05-07 11:27 58.00257 -20.00637 38033 ft 450 kts 293°
2026-05-07 11:28 58.02826 -20.11315 38042 ft 445 kts 295°
2026-05-07 11:28 58.05476 -20.21905 38043 ft 448 kts 295°
2026-05-07 11:29 58.08152 -20.32578 38048 ft 450 kts 295°
2026-05-07 11:29 58.10814 -20.43273 38054 ft 448 kts 295°
2026-05-07 11:30 58.13425 -20.53850 38055 ft 441 kts 295°
2026-05-07 11:30 58.16009 -20.64372 38070 ft 440 kts 295°
2026-05-07 11:31 58.18584 -20.74910 38063 ft 442 kts 295°
2026-05-07 11:31 58.21175 -20.85555 38073 ft 447 kts 295°
2026-05-07 11:32 58.25079 -21.01692 38082 ft 451 kts 295°
2026-05-07 11:33 58.27683 -21.12538 38082 ft 449 kts 295°
2026-05-07 11:33 58.30252 -21.23296 38085 ft 445 kts 295°
2026-05-07 11:34 58.32805 -21.34006 38099 ft 450 kts 295°
2026-05-07 11:34 58.35391 -21.44932 38097 ft 453 kts 295°
2026-05-07 11:35 58.37948 -21.55800 38092 ft 448 kts 295°
2026-05-07 11:35 58.40504 -21.66697 38110 ft 452 kts 295°
2026-05-07 11:36 58.43057 -21.77662 38109 ft 450 kts 295°
2026-05-07 11:36 58.45583 -21.88543 38114 ft 449 kts 295°
2026-05-07 11:37 58.48115 -21.99505 38129 ft 452 kts 295°
2026-05-07 11:37 58.50632 -22.10477 38130 ft 450 kts 295°
2026-05-07 11:38 58.53129 -22.21415 38131 ft 447 kts 295°
2026-05-07 11:38 58.55611 -22.32333 38132 ft 447 kts 295°
2026-05-07 11:39 58.58088 -22.43276 38133 ft 450 kts 294°
2026-05-07 11:39 58.60578 -22.54345 38136 ft 453 kts 295°
2026-05-07 11:40 58.63062 -22.65459 38144 ft 452 kts 294°
2026-05-07 11:40 58.65533 -22.76563 38144 ft 452 kts 294°
2026-05-07 11:41 58.68000 -22.87701 38145 ft 454 kts 294°
2026-05-07 11:41 58.70466 -22.98905 38156 ft 455 kts 294°
2026-05-07 11:42 58.72905 -23.10039 38152 ft 455 kts 294°
2026-05-07 11:42 58.75347 -23.21252 38154 ft 454 kts 294°
2026-05-07 11:43 58.77782 -23.32488 38152 ft 455 kts 294°
2026-05-07 11:43 58.80207 -23.43739 38159 ft 454 kts 294°
2026-05-07 11:44 58.82620 -23.55000 38159 ft 454 kts 294°
2026-05-07 11:44 58.85023 -23.66270 38160 ft 454 kts 294°
2026-05-07 11:45 58.87416 -23.77562 38166 ft 454 kts 294°
2026-05-07 11:45 58.89802 -23.88878 38170 ft 454 kts 294°
2026-05-07 11:46 58.92177 -24.00205 38174 ft 454 kts 294°
2026-05-07 11:46 58.94539 -24.11534 38182 ft 454 kts 294°
2026-05-07 11:47 58.96896 -24.22898 38182 ft 454 kts 294°
2026-05-07 11:47 58.99235 -24.34246 38178 ft 452 kts 294°
2026-05-07 11:48 59.01558 -24.45577 38201 ft 452 kts 294°
2026-05-07 11:48 59.03872 -24.56927 38199 ft 452 kts 294°
2026-05-07 11:49 59.06175 -24.68282 38191 ft 452 kts 293°
2026-05-07 11:49 59.08468 -24.79659 38191 ft 452 kts 293°
2026-05-07 11:50 59.10753 -24.91058 38206 ft 452 kts 293°
2026-05-07 11:50 59.13012 -25.02388 38204 ft 452 kts 293°
2026-05-07 11:51 59.15273 -25.13802 38201 ft 452 kts 293°
2026-05-07 11:51 59.17522 -25.25215 38210 ft 450 kts 293°
2026-05-07 11:52 59.19756 -25.36622 38212 ft 450 kts 293°
2026-05-07 11:52 59.21982 -25.48050 38223 ft 450 kts 293°
2026-05-07 11:53 59.24197 -25.59488 38223 ft 450 kts 293°
2026-05-07 11:53 59.26404 -25.70947 38222 ft 450 kts 292°
2026-05-07 11:54 59.28598 -25.82414 38220 ft 450 kts 292°
2026-05-07 11:54 59.30786 -25.93912 38221 ft 450 kts 292°
2026-05-07 11:55 59.32961 -26.05416 38222 ft 450 kts 292°
2026-05-07 11:55 59.35120 -26.16900 38227 ft 449 kts 292°
2026-05-07 11:56 59.37267 -26.28386 38234 ft 449 kts 292°
2026-05-07 11:56 59.39406 -26.39897 38235 ft 449 kts 292°
2026-05-07 11:57 59.41534 -26.51418 38235 ft 449 kts 292°
2026-05-07 11:57 59.43652 -26.62956 38246 ft 449 kts 292°
2026-05-07 11:58 59.45759 -26.74509 38246 ft 449 kts 292°
2026-05-07 11:58 59.47842 -26.85995 38246 ft 449 kts 292°
2026-05-07 11:59 59.49928 -26.97568 38248 ft 448 kts 292°
2026-05-07 11:59 59.51999 -27.09134 38252 ft 447 kts 292°
2026-05-07 12:00 59.54056 -27.20684 38267 ft 447 kts 292°
2026-05-07 12:00 59.56104 -27.32253 38252 ft 447 kts 292°
2026-05-07 12:01 59.58141 -27.43840 38252 ft 447 kts 292°
2026-05-07 12:01 59.60167 -27.55433 38272 ft 447 kts 292°
2026-05-07 12:02 59.62185 -27.67055 38255 ft 447 kts 292°
2026-05-07 12:02 59.64180 -27.78611 38272 ft 447 kts 292°
2026-05-07 12:03 59.66178 -27.90261 38276 ft 447 kts 291°
2026-05-07 12:03 59.68165 -28.01922 38270 ft 447 kts 291°
2026-05-07 12:04 59.70141 -28.13596 38284 ft 447 kts 291°
2026-05-07 12:04 59.72108 -28.25295 38285 ft 447 kts 291°
2026-05-07 12:05 59.74065 -28.37004 38267 ft 448 kts 291°
2026-05-07 12:05 59.75683 -28.46748 38286 ft 448 kts 291°
2026-05-07 12:06 59.77622 -28.58486 38284 ft 448 kts 291°
2026-05-07 12:06 59.79550 -28.70240 38292 ft 448 kts 291°
2026-05-07 12:07 59.81469 -28.82016 38286 ft 447 kts 291°
2026-05-07 12:07 59.83372 -28.93772 38298 ft 447 kts 291°
2026-05-07 12:08 59.85264 -29.05538 38298 ft 447 kts 291°
2026-05-07 12:08 59.87141 -29.17287 38304 ft 442 kts 291°
2026-05-07 12:09 59.88979 -29.28886 38306 ft 437 kts 291°
2026-05-07 12:09 59.90788 -29.40354 38309 ft 437 kts 291°
2026-05-07 12:10 59.92601 -29.51923 38311 ft 437 kts 291°
2026-05-07 12:10 59.94403 -29.63500 38317 ft 437 kts 291°
2026-05-07 12:11 59.96195 -29.75103 38308 ft 437 kts 290°
2026-05-07 12:11 59.97971 -29.86680 38320 ft 436 kts 290°
2026-05-07 12:12 59.99736 -29.98259 38330 ft 436 kts 290°
2026-05-07 12:12 60.01425 -30.09897 38330 ft 436 kts 289°
2026-05-07 12:13 60.03053 -30.21592 38333 ft 437 kts 289°
2026-05-07 12:13 60.04670 -30.33305 38335 ft 437 kts 289°
2026-05-07 12:14 60.06284 -30.45026 38336 ft 437 kts 289°
2026-05-07 12:14 60.07892 -30.56754 38343 ft 437 kts 289°
2026-05-07 12:15 60.09489 -30.68487 38318 ft 436 kts 289°
2026-05-07 12:15 60.11074 -30.80224 38342 ft 436 kts 289°
2026-05-07 12:16 60.12647 -30.91956 38345 ft 436 kts 289°
2026-05-07 12:16 60.14212 -31.03718 38347 ft 436 kts 289°
2026-05-07 12:17 60.15765 -31.15480 38352 ft 436 kts 289°
2026-05-07 12:17 60.17298 -31.27184 38358 ft 436 kts 289°
2026-05-07 12:18 60.18831 -31.38977 38354 ft 436 kts 288°
2026-05-07 12:18 60.20354 -31.50780 38369 ft 436 kts 288°
2026-05-07 12:19 60.21868 -31.62605 38325 ft 436 kts 288°
2026-05-07 12:19 60.23367 -31.74417 38362 ft 436 kts 288°
2026-05-07 12:20 60.24857 -31.86243 38368 ft 436 kts 288°
2026-05-07 12:20 60.26336 -31.98079 38374 ft 436 kts 288°
2026-05-07 12:21 60.27805 -32.09925 38373 ft 436 kts 288°
2026-05-07 12:21 60.29263 -32.21782 38376 ft 436 kts 288°
2026-05-07 12:22 60.30712 -32.33656 38376 ft 436 kts 288°
2026-05-07 12:22 60.32150 -32.45543 38376 ft 436 kts 288°
2026-05-07 12:23 60.33577 -32.57438 38370 ft 436 kts 288°
2026-05-07 12:23 60.34992 -32.69342 38387 ft 435 kts 288°
2026-05-07 12:24 60.36385 -32.81144 38382 ft 435 kts 288°
2026-05-07 12:24 60.37777 -32.93044 38387 ft 435 kts 287°
2026-05-07 12:25 60.39159 -33.04958 38387 ft 435 kts 287°
2026-05-07 12:25 60.40530 -33.16874 38387 ft 435 kts 287°
2026-05-07 12:26 60.41890 -33.28803 38392 ft 435 kts 287°
2026-05-07 12:26 60.43239 -33.40739 38392 ft 435 kts 287°
2026-05-07 12:27 60.44579 -33.52696 38391 ft 435 kts 287°
2026-05-07 12:27 60.45907 -33.64653 38397 ft 434 kts 287°
2026-05-07 12:28 60.47219 -33.76581 38394 ft 434 kts 287°
2026-05-07 12:28 60.48524 -33.88535 38388 ft 434 kts 287°
2026-05-07 12:29 60.49807 -34.00407 38390 ft 434 kts 287°
2026-05-07 12:29 60.51089 -34.12369 38393 ft 434 kts 286°
2026-05-07 12:30 60.52360 -34.24343 38390 ft 434 kts 286°
2026-05-07 12:30 60.53623 -34.36333 38387 ft 434 kts 286°
2026-05-07 12:31 60.54876 -34.48333 38395 ft 435 kts 286°
2026-05-07 12:31 60.56121 -34.60346 38390 ft 433 kts 286°
2026-05-07 12:32 60.57345 -34.72316 38392 ft 432 kts 286°
2026-05-07 12:32 60.58559 -34.84292 38393 ft 432 kts 286°
2026-05-07 12:33 60.60360 -35.02262 38392 ft 432 kts 285°
2026-05-07 12:33 60.61545 -35.14255 38392 ft 432 kts 285°
2026-05-07 12:34 60.62719 -35.26263 38389 ft 432 kts 285°
2026-05-07 12:34 60.63881 -35.38274 38389 ft 432 kts 285°
2026-05-07 12:35 60.65034 -35.50298 38390 ft 432 kts 285°
2026-05-07 12:35 60.66174 -35.62301 38386 ft 430 kts 285°
2026-05-07 12:36 60.67290 -35.74168 38387 ft 428 kts 285°
2026-05-07 12:36 60.68403 -35.86102 38389 ft 428 kts 285°
2026-05-07 12:37 60.69504 -35.98042 38391 ft 428 kts 285°
2026-05-07 12:37 60.70594 -36.09997 38375 ft 428 kts 285°
2026-05-07 12:38 60.71673 -36.21959 38395 ft 428 kts 285°
2026-05-07 12:38 60.72743 -36.33926 38380 ft 428 kts 285°
2026-05-07 12:39 60.73800 -36.45899 38390 ft 428 kts 285°
2026-05-07 12:39 60.74848 -36.57883 38364 ft 427 kts 284°
2026-05-07 12:40 60.75873 -36.69767 38384 ft 422 kts 284°
2026-05-07 12:40 60.76884 -36.81589 38384 ft 422 kts 284°
2026-05-07 12:41 60.77887 -36.93429 38388 ft 422 kts 284°
2026-05-07 12:41 60.78878 -37.05273 38379 ft 422 kts 284°
2026-05-07 12:42 60.79858 -37.17120 38385 ft 422 kts 284°
2026-05-07 12:42 60.80822 -37.28899 38385 ft 422 kts 284°
2026-05-07 12:43 60.81781 -37.40763 38386 ft 422 kts 284°
2026-05-07 12:43 60.82728 -37.52621 38384 ft 422 kts 283°
2026-05-07 12:44 60.83667 -37.64503 38375 ft 422 kts 283°
2026-05-07 12:44 60.84593 -37.76383 38382 ft 422 kts 283°
2026-05-07 12:45 60.85505 -37.88280 38371 ft 422 kts 283°
2026-05-07 12:45 60.86406 -38.00168 38376 ft 421 kts 283°
2026-05-07 12:46 60.87298 -38.12041 38367 ft 421 kts 283°
2026-05-07 12:46 60.88182 -38.23919 38371 ft 421 kts 283°
2026-05-07 12:47 60.89055 -38.35806 38379 ft 421 kts 283°
2026-05-07 12:47 60.89918 -38.47702 38373 ft 421 kts 283°
2026-05-07 12:48 60.90768 -38.59587 38370 ft 418 kts 282°
2026-05-07 12:48 60.91595 -38.71320 38367 ft 413 kts 282°
2026-05-07 12:49 60.92411 -38.82996 38357 ft 413 kts 282°
2026-05-07 12:49 60.93219 -38.94698 38366 ft 413 kts 282°
2026-05-07 12:50 60.94010 -39.06326 38362 ft 414 kts 282°
2026-05-07 12:50 60.94796 -39.18055 38363 ft 414 kts 282°
2026-05-07 12:51 60.95572 -39.29787 38362 ft 414 kts 281°
2026-05-07 12:51 60.96339 -39.41529 38363 ft 414 kts 281°
2026-05-07 12:52 60.97095 -39.53275 38362 ft 414 kts 281°
2026-05-07 12:52 60.97841 -39.65021 38363 ft 414 kts 281°
2026-05-07 12:53 60.98577 -39.76774 38356 ft 414 kts 280°
2026-05-07 12:53 60.99304 -39.88561 38357 ft 415 kts 280°
2026-05-07 12:54 61.00158 -40.00301 38357 ft 413 kts 286°
2026-05-07 12:54 61.01625 -40.11746 38360 ft 412 kts 288°
2026-05-07 12:55 61.03194 -40.23051 38357 ft 412 kts 288°
2026-05-07 12:55 61.04786 -40.34420 38357 ft 412 kts 288°
2026-05-07 12:56 61.06096 -40.43876 38357 ft 412 kts 288°
2026-05-07 12:56 61.07658 -40.55281 38348 ft 413 kts 288°
2026-05-07 12:57 61.09210 -40.66721 38357 ft 415 kts 287°
2026-05-07 12:57 61.10759 -40.78222 38351 ft 416 kts 287°
2026-05-07 12:58 61.12300 -40.89760 38351 ft 416 kts 286°
2026-05-07 12:58 61.13833 -41.01315 38350 ft 416 kts 286°
2026-05-07 12:59 61.15356 -41.12880 38349 ft 416 kts 286°
2026-05-07 12:59 61.16869 -41.24458 38348 ft 416 kts 286°
2026-05-07 13:00 61.18374 -41.36044 38348 ft 417 kts 285°
2026-05-07 13:00 61.19872 -41.47677 38348 ft 418 kts 285°
2026-05-07 13:01 61.21363 -41.59352 38348 ft 419 kts 285°
2026-05-07 13:01 61.22844 -41.71033 38349 ft 419 kts 285°
2026-05-07 13:02 61.24306 -41.82646 38348 ft 419 kts 285°
2026-05-07 13:02 61.25767 -41.94348 38347 ft 419 kts 285°
2026-05-07 13:03 61.27215 -42.06027 38343 ft 415 kts 284°
2026-05-07 13:03 61.28640 -42.17622 38344 ft 413 kts 283°
2026-05-07 13:04 61.30051 -42.29203 38344 ft 413 kts 283°
2026-05-07 13:04 61.31455 -42.40809 38344 ft 413 kts 283°
2026-05-07 13:05 61.32848 -42.52407 38343 ft 413 kts 283°
2026-05-07 13:05 61.34231 -42.64029 38345 ft 413 kts 283°
2026-05-07 13:06 61.35604 -42.75651 38344 ft 413 kts 283°
2026-05-07 13:06 61.36960 -42.87218 38349 ft 413 kts 283°
2026-05-07 13:07 61.38317 -42.98898 38341 ft 416 kts 282°
2026-05-07 13:07 61.39670 -43.10637 38339 ft 416 kts 282°
2026-05-07 13:08 61.41013 -43.22390 38331 ft 416 kts 282°
2026-05-07 13:08 61.42349 -43.34172 38316 ft 418 kts 282°
2026-05-07 13:09 61.43679 -43.46014 38331 ft 419 kts 282°
2026-05-07 13:09 61.45002 -43.57886 38306 ft 419 kts 282°
2026-05-07 13:10 61.46314 -43.69769 38299 ft 420 kts 282°
2026-05-07 13:10 61.47621 -43.81708 38285 ft 422 kts 281°
2026-05-07 13:11 61.48923 -43.93708 38252 ft 423 kts 281°
2026-05-07 13:11 61.50217 -44.05732 38252 ft 423 kts 281°
2026-05-07 13:12 61.51498 -44.17756 38239 ft 423 kts 281°
2026-05-07 13:12 61.52770 -44.29801 38241 ft 423 kts 281°
2026-05-07 13:13 61.54031 -44.41855 38241 ft 423 kts 281°
2026-05-07 13:13 61.55282 -44.53922 38247 ft 424 kts 281°
2026-05-07 13:14 61.56527 -44.66043 38244 ft 425 kts 280°
2026-05-07 13:14 61.57761 -44.78170 38244 ft 425 kts 280°
2026-05-07 13:15 61.58983 -44.90297 38257 ft 425 kts 280°
2026-05-07 13:15 61.60194 -45.02428 38256 ft 424 kts 280°
2026-05-07 13:16 61.61394 -45.14569 38260 ft 424 kts 280°
2026-05-07 13:16 61.62584 -45.26732 38260 ft 424 kts 280°
2026-05-07 13:17 61.63756 -45.38821 38267 ft 426 kts 279°
2026-05-07 13:17 61.64929 -45.51045 38263 ft 427 kts 279°
2026-05-07 13:18 61.66092 -45.63290 38269 ft 427 kts 279°
2026-05-07 13:18 61.67244 -45.75537 38270 ft 427 kts 279°
2026-05-07 13:19 61.68384 -45.87790 38267 ft 426 kts 278°
2026-05-07 13:19 61.69512 -46.00031 38262 ft 424 kts 278°
2026-05-07 13:20 61.70624 -46.12227 38268 ft 424 kts 278°
2026-05-07 13:20 61.71729 -46.24490 38258 ft 427 kts 277°
2026-05-07 13:21 61.72827 -46.36802 38260 ft 428 kts 277°
2026-05-07 13:21 61.73916 -46.49136 38249 ft 428 kts 277°
2026-05-07 13:22 61.74994 -46.61475 38253 ft 428 kts 277°
2026-05-07 13:22 61.76060 -46.73823 38246 ft 428 kts 277°
2026-05-07 13:23 61.77116 -46.86184 38246 ft 427 kts 277°
2026-05-07 13:23 61.78160 -46.98550 38241 ft 429 kts 277°
2026-05-07 13:24 61.79198 -47.11001 38224 ft 432 kts 277°
2026-05-07 13:24 61.80232 -47.23505 38228 ft 430 kts 275°
2026-05-07 13:25 61.81244 -47.35884 38225 ft 426 kts 275°
2026-05-07 13:25 61.82239 -47.48242 38205 ft 427 kts 275°
2026-05-07 13:26 61.83225 -47.60634 38200 ft 426 kts 276°
2026-05-07 13:26 61.84192 -47.72916 38204 ft 425 kts 275°
2026-05-07 13:27 61.85156 -47.85318 38192 ft 430 kts 275°
2026-05-07 13:27 61.86120 -47.97894 38195 ft 434 kts 275°
2026-05-07 13:28 61.87077 -48.10508 38178 ft 434 kts 275°
2026-05-07 13:28 61.88023 -48.23133 38170 ft 433 kts 275°
2026-05-07 13:29 61.88956 -48.35751 38176 ft 433 kts 275°
2026-05-07 13:29 61.89878 -48.48380 38163 ft 433 kts 275°
2026-05-07 13:30 61.90788 -48.61010 38166 ft 433 kts 274°
2026-05-07 13:30 61.91687 -48.73671 38149 ft 435 kts 274°
2026-05-07 13:31 61.92576 -48.86363 38147 ft 435 kts 274°
2026-05-07 13:31 61.93454 -48.99043 38144 ft 433 kts 274°
2026-05-07 13:32 61.94315 -49.11665 38143 ft 431 kts 274°
2026-05-07 13:32 61.95161 -49.24263 38144 ft 431 kts 273°
2026-05-07 13:33 61.95997 -49.36883 38144 ft 431 kts 273°
2026-05-07 13:33 61.96816 -49.49443 38135 ft 434 kts 273°
2026-05-07 13:34 61.98043 -49.68573 38133 ft 436 kts 273°
2026-05-07 13:35 61.98848 -49.81352 38141 ft 436 kts 273°
2026-05-07 13:35 61.99612 -49.94139 38139 ft 434 kts 270°
2026-05-07 13:36 61.99292 -50.06780 38133 ft 426 kts 257°
2026-05-07 13:36 61.98208 -50.19143 38123 ft 425 kts 255°
2026-05-07 13:37 61.96971 -50.31438 38133 ft 425 kts 254°
2026-05-07 13:37 61.95718 -50.43720 38129 ft 425 kts 254°
2026-05-07 13:38 61.94474 -50.56000 38116 ft 425 kts 254°
2026-05-07 13:38 61.93230 -50.68276 38117 ft 425 kts 254°
2026-05-07 13:39 61.91978 -50.80541 38125 ft 425 kts 253°
2026-05-07 13:39 61.90722 -50.92731 38109 ft 421 kts 253°
2026-05-07 13:40 61.89463 -51.04823 38111 ft 419 kts 253°
2026-05-07 13:40 61.88202 -51.16812 38098 ft 419 kts 253°
2026-05-07 13:41 61.86922 -51.28866 38104 ft 419 kts 253°
2026-05-07 13:41 61.85633 -51.40910 38098 ft 419 kts 253°
2026-05-07 13:42 61.84330 -51.52972 38085 ft 422 kts 252°
2026-05-07 13:42 61.83004 -51.65131 38086 ft 425 kts 252°
2026-05-07 13:43 61.81663 -51.77320 38086 ft 426 kts 253°
2026-05-07 13:43 61.80312 -51.89504 38079 ft 426 kts 252°
2026-05-07 13:44 61.78948 -52.01685 38070 ft 426 kts 252°
2026-05-07 13:44 61.77575 -52.13850 38071 ft 426 kts 252°
2026-05-07 13:45 61.76189 -52.26018 38058 ft 426 kts 252°
2026-05-07 13:45 61.75032 -52.36091 38060 ft 426 kts 252°
2026-05-07 13:46 61.73627 -52.48238 38051 ft 425 kts 252°
2026-05-07 13:46 61.71981 -52.62323 38085 ft 427 kts 252°
2026-05-07 13:47 61.70776 -52.72548 38043 ft 431 kts 252°
2026-05-07 13:47 61.69315 -52.84848 38034 ft 433 kts 252°
2026-05-07 13:48 61.67853 -52.97077 38028 ft 433 kts 252°
2026-05-07 13:48 61.66370 -53.09365 38030 ft 433 kts 252°
2026-05-07 13:49 61.64875 -53.21646 38021 ft 433 kts 252°
2026-05-07 13:49 61.63370 -53.33912 38015 ft 433 kts 252°
2026-05-07 13:50 61.61855 -53.46153 38015 ft 432 kts 252°
2026-05-07 13:50 61.60336 -53.58334 38007 ft 431 kts 252°
2026-05-07 13:51 61.58805 -53.70499 38003 ft 431 kts 251°
2026-05-07 13:51 61.57261 -53.82675 38000 ft 433 kts 251°
2026-05-07 13:52 61.55695 -53.94912 37991 ft 435 kts 251°
2026-05-07 13:52 61.54117 -54.07170 37990 ft 435 kts 251°
2026-05-07 13:53 61.52528 -54.19410 37985 ft 435 kts 251°
2026-05-07 13:53 61.50930 -54.31617 37976 ft 434 kts 251°
2026-05-07 13:54 61.49328 -54.43767 37976 ft 432 kts 251°
2026-05-07 13:54 61.47726 -54.55814 37974 ft 432 kts 251°
2026-05-07 13:55 61.46104 -54.67918 37964 ft 432 kts 251°
2026-05-07 13:55 61.44470 -54.80017 37966 ft 432 kts 251°
2026-05-07 13:56 61.42825 -54.92111 37975 ft 433 kts 250°
2026-05-07 13:56 61.41164 -55.04226 37966 ft 435 kts 250°
2026-05-07 13:57 61.39496 -55.16311 37957 ft 432 kts 250°
2026-05-07 13:57 61.37826 -55.28320 37955 ft 430 kts 250°
2026-05-07 13:58 61.36147 -55.40296 37949 ft 430 kts 250°
2026-05-07 13:58 61.34459 -55.52252 37952 ft 430 kts 250°
2026-05-07 13:59 61.32759 -55.64200 37940 ft 430 kts 250°
2026-05-07 13:59 61.31049 -55.76143 37940 ft 430 kts 250°
2026-05-07 14:00 61.29330 -55.88055 37943 ft 430 kts 250°
2026-05-07 14:00 61.27604 -55.99933 37942 ft 428 kts 249°
2026-05-07 14:01 61.25865 -56.11809 37933 ft 431 kts 249°
2026-05-07 14:01 61.24110 -56.23714 37925 ft 431 kts 249°
2026-05-07 14:02 61.22344 -56.35616 37928 ft 431 kts 249°
2026-05-07 14:02 61.20580 -56.47418 37919 ft 431 kts 249°
2026-05-07 14:03 61.18793 -56.59292 37915 ft 431 kts 249°
2026-05-07 14:03 61.16996 -56.71151 37920 ft 431 kts 249°
2026-05-07 14:04 61.15191 -56.82982 37916 ft 430 kts 249°
2026-05-07 14:04 61.13378 -56.94780 37908 ft 430 kts 249°
2026-05-07 14:05 61.11557 -57.06550 37945 ft 430 kts 249°
2026-05-07 14:05 61.09715 -57.18368 37912 ft 434 kts 249°
2026-05-07 14:06 61.07851 -57.30253 37898 ft 435 kts 248°
2026-05-07 14:06 61.05977 -57.42128 37900 ft 435 kts 248°
2026-05-07 14:07 61.04092 -57.53992 37906 ft 435 kts 248°
2026-05-07 14:07 61.02197 -57.65841 37897 ft 435 kts 248°
2026-05-07 14:08 61.00304 -57.77591 37890 ft 435 kts 248°
2026-05-07 14:08 60.98386 -57.89422 37892 ft 435 kts 248°
2026-05-07 14:09 60.96681 -58.01383 37892 ft 438 kts 256°
2026-05-07 14:09 60.95691 -58.13782 37905 ft 440 kts 258°
2026-05-07 14:10 60.94837 -58.26300 37885 ft 443 kts 258°
2026-05-07 14:10 60.93992 -58.38869 37884 ft 444 kts 258°
2026-05-07 14:11 60.93123 -58.51425 37882 ft 444 kts 258°
2026-05-07 14:11 60.92230 -58.63978 37877 ft 444 kts 258°
2026-05-07 14:12 60.91323 -58.76517 37876 ft 444 kts 258°
2026-05-07 14:12 60.90404 -58.89057 37871 ft 444 kts 258°
2026-05-07 14:13 60.89474 -59.01579 37893 ft 443 kts 258°
2026-05-07 14:13 60.88531 -59.14125 37866 ft 446 kts 257°
2026-05-07 14:14 60.87571 -59.26722 37863 ft 447 kts 257°
2026-05-07 14:14 60.86601 -59.39310 37860 ft 447 kts 257°
2026-05-07 14:15 60.85619 -59.51885 37859 ft 445 kts 257°
2026-05-07 14:15 60.84629 -59.64401 37856 ft 444 kts 257°
2026-05-07 14:16 60.83629 -59.76888 37856 ft 444 kts 257°
2026-05-07 14:16 60.82617 -59.89368 37851 ft 444 kts 257°
2026-05-07 14:17 60.81598 -60.01783 37848 ft 446 kts 257°
2026-05-07 14:17 60.80555 -60.14340 37848 ft 447 kts 257°
2026-05-07 14:18 60.79501 -60.26890 37839 ft 447 kts 257°
2026-05-07 14:18 60.78435 -60.39443 37840 ft 447 kts 257°
2026-05-07 14:19 60.77357 -60.51980 37841 ft 447 kts 257°
2026-05-07 14:19 60.76272 -60.64468 37831 ft 445 kts 256°
2026-05-07 14:20 60.75176 -60.76923 37832 ft 445 kts 256°
2026-05-07 14:20 60.74070 -60.89359 37832 ft 445 kts 256°
2026-05-07 14:21 60.72951 -61.01800 37826 ft 445 kts 256°
2026-05-07 14:21 60.71822 -61.14217 37824 ft 445 kts 256°
2026-05-07 14:22 60.70681 -61.26627 37822 ft 445 kts 256°
2026-05-07 14:22 60.69529 -61.39031 37823 ft 445 kts 256°
2026-05-07 14:23 60.68365 -61.51426 37824 ft 444 kts 256°
2026-05-07 14:23 60.67195 -61.63768 37826 ft 442 kts 255°
2026-05-07 14:24 60.66015 -61.76067 37820 ft 443 kts 256°
2026-05-07 14:24 60.64818 -61.88417 37815 ft 444 kts 255°
2026-05-07 14:25 60.63617 -62.00688 37814 ft 444 kts 255°
2026-05-07 14:25 60.62398 -62.13033 37812 ft 444 kts 255°
2026-05-07 14:26 60.61167 -62.25361 37810 ft 444 kts 255°
2026-05-07 14:26 60.59924 -62.37690 37804 ft 444 kts 255°
2026-05-07 14:27 60.58675 -62.49993 37809 ft 445 kts 256°
2026-05-07 14:27 60.57869 -62.62503 37810 ft 447 kts 260°
2026-05-07 14:28 60.57216 -62.75113 37801 ft 449 kts 261°
2026-05-07 14:28 60.56584 -62.87754 37793 ft 449 kts 261°
2026-05-07 14:29 60.55937 -63.00381 37799 ft 449 kts 261°
2026-05-07 14:29 60.55269 -63.13003 37799 ft 449 kts 260°
2026-05-07 14:30 60.54587 -63.25612 37792 ft 449 kts 260°
2026-05-07 14:30 60.53892 -63.38222 37794 ft 449 kts 260°
2026-05-07 14:31 60.53183 -63.50862 37791 ft 451 kts 260°
2026-05-07 14:31 60.52461 -63.63530 37789 ft 452 kts 260°
2026-05-07 14:32 60.51727 -63.76206 37783 ft 452 kts 260°
2026-05-07 14:32 60.50986 -63.88781 37786 ft 452 kts 260°
2026-05-07 14:33 60.50228 -64.01437 37782 ft 452 kts 260°
2026-05-07 14:33 60.49459 -64.14075 37785 ft 451 kts 260°
2026-05-07 14:34 60.48676 -64.26728 37784 ft 453 kts 260°
2026-05-07 14:34 60.47879 -64.39410 37782 ft 454 kts 260°
2026-05-07 14:35 60.47070 -64.52094 37781 ft 454 kts 260°
2026-05-07 14:35 60.46250 -64.64762 37783 ft 454 kts 260°
2026-05-07 14:36 60.45558 -64.75291 37780 ft 454 kts 259°
2026-05-07 14:36 60.44714 -64.87960 37787 ft 453 kts 259°
2026-05-07 14:37 60.43863 -65.00572 37777 ft 452 kts 259°
2026-05-07 14:37 60.42561 -65.19478 37778 ft 452 kts 259°
2026-05-07 14:38 60.41677 -65.32102 37770 ft 452 kts 259°
2026-05-07 14:38 60.40783 -65.44702 37773 ft 452 kts 259°
2026-05-07 14:39 60.39877 -65.57288 37769 ft 452 kts 258°
2026-05-07 14:39 60.38958 -65.69876 37768 ft 452 kts 258°
2026-05-07 14:40 60.38028 -65.82452 37757 ft 453 kts 258°
2026-05-07 14:40 60.37081 -65.95076 37747 ft 455 kts 258°
2026-05-07 14:41 60.36121 -66.07717 37761 ft 455 kts 258°
2026-05-07 14:41 60.35149 -66.20361 37748 ft 455 kts 258°
2026-05-07 14:42 60.34165 -66.32991 37757 ft 455 kts 258°
2026-05-07 14:42 60.33168 -66.45625 37758 ft 455 kts 258°
2026-05-07 14:43 60.32159 -66.58243 37757 ft 455 kts 258°
2026-05-07 14:43 60.31138 -66.70864 37746 ft 456 kts 258°
2026-05-07 14:44 60.30104 -66.83490 37746 ft 456 kts 258°
2026-05-07 14:44 60.29057 -66.96109 37737 ft 456 kts 258°
2026-05-07 14:45 60.27999 -67.08720 37741 ft 456 kts 258°
2026-05-07 14:45 60.26929 -67.21320 37731 ft 456 kts 258°
2026-05-07 14:46 60.25855 -67.33823 37732 ft 456 kts 257°
2026-05-07 14:46 60.24762 -67.46400 37733 ft 457 kts 257°
2026-05-07 14:47 60.23654 -67.58996 37730 ft 457 kts 257°
2026-05-07 14:47 60.22535 -67.71577 37730 ft 457 kts 257°
2026-05-07 14:48 60.21403 -67.84165 37724 ft 457 kts 257°
2026-05-07 14:48 60.20260 -67.96736 37722 ft 457 kts 257°
2026-05-07 14:49 60.19104 -68.09312 37722 ft 457 kts 257°
2026-05-07 14:49 60.17937 -68.21862 37715 ft 457 kts 257°
2026-05-07 14:50 60.16757 -68.34416 37713 ft 458 kts 257°
2026-05-07 14:50 60.15562 -68.46990 37710 ft 458 kts 257°
2026-05-07 14:51 60.14357 -68.59546 37711 ft 458 kts 257°
2026-05-07 14:51 60.13139 -68.72092 37711 ft 458 kts 257°
2026-05-07 14:52 60.11918 -68.84545 37700 ft 458 kts 257°
2026-05-07 14:52 60.10678 -68.97069 37700 ft 458 kts 256°
2026-05-07 14:53 60.09425 -69.09584 37693 ft 458 kts 256°
2026-05-07 14:53 60.08162 -69.22078 37694 ft 458 kts 256°
2026-05-07 14:54 60.06886 -69.34579 37693 ft 458 kts 256°
2026-05-07 14:54 60.05598 -69.47064 37678 ft 458 kts 256°
2026-05-07 14:55 60.04298 -69.59542 37671 ft 458 kts 256°
2026-05-07 14:55 60.02988 -69.72000 37669 ft 458 kts 256°
2026-05-07 14:56 60.01665 -69.84455 37655 ft 458 kts 256°
2026-05-07 14:56 60.00414 -69.96941 37655 ft 459 kts 261°
2026-05-07 14:57 60.00346 -70.09737 37654 ft 462 kts 271°
2026-05-07 14:57 60.00761 -70.22552 37657 ft 463 kts 272°
2026-05-07 14:58 60.01258 -70.35374 37669 ft 463 kts 272°
2026-05-07 14:58 60.01729 -70.48113 37671 ft 463 kts 272°
2026-05-07 14:59 60.02169 -70.60942 37668 ft 463 kts 271°
2026-05-07 14:59 60.02588 -70.73777 37667 ft 463 kts 271°
2026-05-07 15:00 60.02994 -70.86618 37661 ft 463 kts 271°
2026-05-07 15:00 60.03389 -70.99460 37661 ft 463 kts 271°
2026-05-07 15:01 60.03772 -71.12303 37662 ft 463 kts 271°
2026-05-07 15:01 60.04143 -71.25178 37651 ft 464 kts 271°
2026-05-07 15:02 60.04502 -71.38070 37651 ft 464 kts 271°
2026-05-07 15:02 60.04849 -71.50974 37643 ft 464 kts 271°
2026-05-07 15:03 60.05183 -71.63877 37641 ft 464 kts 270°
2026-05-07 15:03 60.05504 -71.76759 37633 ft 463 kts 271°
2026-05-07 15:04 60.05813 -71.89636 37633 ft 464 kts 270°
2026-05-07 15:04 60.06107 -72.02452 37626 ft 464 kts 270°
2026-05-07 15:05 60.06391 -72.15369 37626 ft 464 kts 270°
2026-05-07 15:05 60.06662 -72.28279 37620 ft 464 kts 270°
2026-05-07 15:06 60.06921 -72.41201 37623 ft 464 kts 270°
2026-05-07 15:06 60.07167 -72.54123 37612 ft 465 kts 270°
2026-05-07 15:07 60.07401 -72.67069 37612 ft 466 kts 270°
2026-05-07 15:07 60.07622 -72.80038 37607 ft 466 kts 270°
2026-05-07 15:08 60.07832 -72.93011 37610 ft 466 kts 270°
2026-05-07 15:08 60.08028 -73.05963 37599 ft 466 kts 269°
2026-05-07 15:09 60.08212 -73.18934 37601 ft 466 kts 269°
2026-05-07 15:09 60.08383 -73.31925 37589 ft 467 kts 269°
2026-05-07 15:10 60.08541 -73.44944 37594 ft 468 kts 269°
2026-05-07 15:10 60.08687 -73.57957 37581 ft 467 kts 269°
2026-05-07 15:11 60.08820 -73.70979 37582 ft 467 kts 268°
2026-05-07 15:11 60.08940 -73.83989 37581 ft 467 kts 269°
2026-05-07 15:12 60.09049 -73.97017 37583 ft 468 kts 268°
2026-05-07 15:12 60.09143 -74.10068 37582 ft 468 kts 269°
2026-05-07 15:13 60.09225 -74.23022 37571 ft 468 kts 268°
2026-05-07 15:13 60.09295 -74.36049 37568 ft 467 kts 268°
2026-05-07 15:14 60.09351 -74.49057 37556 ft 467 kts 269°
2026-05-07 15:14 60.09394 -74.62072 37561 ft 467 kts 268°
2026-05-07 15:15 60.09424 -74.75095 37555 ft 468 kts 268°
2026-05-07 15:15 60.09443 -74.88144 37543 ft 468 kts 268°
2026-05-07 15:16 60.09448 -75.01180 37533 ft 468 kts 267°
2026-05-07 15:16 60.09440 -75.14222 37537 ft 468 kts 267°
2026-05-07 15:17 60.09420 -75.27247 37529 ft 468 kts 268°
2026-05-07 15:17 60.09386 -75.40304 37521 ft 468 kts 268°
2026-05-07 15:18 60.09341 -75.53361 37512 ft 469 kts 268°
2026-05-07 15:18 60.09282 -75.66416 37511 ft 468 kts 267°
2026-05-07 15:19 60.09211 -75.79466 37510 ft 469 kts 268°
2026-05-07 15:19 60.09127 -75.92436 37503 ft 469 kts 266°
2026-05-07 15:20 60.09029 -76.05486 37496 ft 469 kts 267°
2026-05-07 15:20 60.08918 -76.18533 37500 ft 468 kts 267°
2026-05-07 15:21 60.08795 -76.31586 37498 ft 468 kts 267°
2026-05-07 15:21 60.08659 -76.44627 37506 ft 468 kts 267°
2026-05-07 15:22 60.08509 -76.57676 37502 ft 469 kts 265°
2026-05-07 15:22 60.08347 -76.70729 37488 ft 469 kts 267°
2026-05-07 15:23 60.08173 -76.83789 37485 ft 468 kts 267°
2026-05-07 15:23 60.07987 -76.96807 37471 ft 467 kts 265°
2026-05-07 15:24 60.07787 -77.09817 37469 ft 467 kts 266°
2026-05-07 15:24 60.07576 -77.22813 37468 ft 467 kts 265°
2026-05-07 15:25 60.07349 -77.35833 37467 ft 468 kts 266°
2026-05-07 15:25 60.07151 -77.46653 37469 ft 468 kts 265°
2026-05-07 15:26 60.06902 -77.59696 37470 ft 469 kts 266°
2026-05-07 15:26 60.06641 -77.72735 37463 ft 469 kts 266°
2026-05-07 15:27 60.06365 -77.85773 37458 ft 469 kts 266°
2026-05-07 15:27 60.06079 -77.98801 37458 ft 469 kts 265°
2026-05-07 15:28 60.05776 -78.11855 37447 ft 469 kts 266°
2026-05-07 15:28 60.05462 -78.24897 37437 ft 470 kts 266°
2026-05-07 15:29 60.05135 -78.37947 37437 ft 469 kts 266°
2026-05-07 15:29 60.04796 -78.51003 37437 ft 470 kts 265°
2026-05-07 15:30 60.04443 -78.64050 37433 ft 469 kts 265°
2026-05-07 15:30 60.04079 -78.77022 37437 ft 470 kts 266°
2026-05-07 15:31 60.03701 -78.90087 37431 ft 471 kts 266°
2026-05-07 15:31 60.03309 -79.03161 37427 ft 470 kts 265°
2026-05-07 15:32 60.02904 -79.16223 37418 ft 471 kts 265°
2026-05-07 15:32 60.02486 -79.29279 37425 ft 470 kts 265°
2026-05-07 15:33 60.02056 -79.42324 37418 ft 470 kts 265°
2026-05-07 15:33 60.01613 -79.55348 37415 ft 470 kts 265°
2026-05-07 15:34 60.01157 -79.68377 37400 ft 470 kts 265°
2026-05-07 15:34 60.00689 -79.81409 37419 ft 470 kts 265°
2026-05-07 15:35 60.00208 -79.94432 37402 ft 470 kts 265°
2026-05-07 15:35 59.99736 -80.07462 37408 ft 470 kts 265°
2026-05-07 15:36 59.99294 -80.20504 37402 ft 471 kts 265°
2026-05-07 15:36 59.98845 -80.33562 37406 ft 471 kts 265°
2026-05-07 15:37 59.98379 -80.46612 37398 ft 471 kts 265°
2026-05-07 15:37 59.97900 -80.59568 37396 ft 471 kts 265°
2026-05-07 15:38 59.97404 -80.72612 37391 ft 471 kts 265°
2026-05-07 15:38 59.96894 -80.85669 37393 ft 473 kts 265°
2026-05-07 15:39 59.96370 -80.98757 37400 ft 472 kts 265°
2026-05-07 15:39 59.95835 -81.11816 37397 ft 473 kts 264°
2026-05-07 15:40 59.95287 -81.24875 37392 ft 472 kts 264°
2026-05-07 15:40 59.94718 -81.37935 37393 ft 473 kts 265°
2026-05-07 15:41 59.94151 -81.51018 37393 ft 474 kts 265°
2026-05-07 15:41 59.93570 -81.64120 37385 ft 474 kts 264°
2026-05-07 15:42 59.92971 -81.77205 37388 ft 474 kts 264°
2026-05-07 15:42 59.92354 -81.90290 37399 ft 474 kts 264°
2026-05-07 15:43 59.91719 -82.03349 37392 ft 472 kts 264°
2026-05-07 15:43 59.91075 -82.16381 37380 ft 473 kts 264°
2026-05-07 15:44 59.90421 -82.29421 37386 ft 473 kts 264°
2026-05-07 15:44 59.89760 -82.42381 37386 ft 473 kts 264°
2026-05-07 15:45 59.89082 -82.55418 37385 ft 474 kts 264°
2026-05-07 15:45 59.88390 -82.68445 37383 ft 473 kts 264°
2026-05-07 15:46 59.87328 -82.87992 37385 ft 473 kts 263°
2026-05-07 15:47 59.86604 -83.01015 37385 ft 473 kts 263°
2026-05-07 15:47 59.85868 -83.14017 37391 ft 473 kts 263°
2026-05-07 15:48 59.85119 -83.27026 37385 ft 473 kts 263°
2026-05-07 15:48 59.84355 -83.40046 37394 ft 473 kts 263°
2026-05-07 15:49 59.83579 -83.53052 37396 ft 474 kts 263°
2026-05-07 15:49 59.82790 -83.66069 37393 ft 474 kts 263°
2026-05-07 15:50 59.81988 -83.79079 37387 ft 474 kts 263°
2026-05-07 15:50 59.81178 -83.91987 37392 ft 474 kts 263°
2026-05-07 15:51 59.80350 -84.04991 37389 ft 474 kts 263°
2026-05-07 15:51 59.79508 -84.17996 37393 ft 475 kts 263°
2026-05-07 15:52 59.78652 -84.31017 37394 ft 476 kts 263°
2026-05-07 15:52 59.77784 -84.44025 37393 ft 476 kts 263°
2026-05-07 15:53 59.76901 -84.57041 37392 ft 475 kts 262°
2026-05-07 15:53 59.76008 -84.70030 37398 ft 475 kts 262°
2026-05-07 15:54 59.75104 -84.82972 37400 ft 474 kts 262°
2026-05-07 15:54 59.74187 -84.95918 37396 ft 474 kts 262°
2026-05-07 15:55 59.73255 -85.08874 37396 ft 475 kts 262°
2026-05-07 15:55 59.72311 -85.21830 37407 ft 475 kts 262°
2026-05-07 15:56 59.71354 -85.34770 37405 ft 474 kts 262°
2026-05-07 15:56 59.70384 -85.47703 37405 ft 474 kts 262°
2026-05-07 15:57 59.69403 -85.60619 37406 ft 475 kts 262°
2026-05-07 15:57 59.68407 -85.73550 37403 ft 475 kts 262°
2026-05-07 15:58 59.67398 -85.86473 37408 ft 475 kts 262°
2026-05-07 15:58 59.66378 -85.99383 37415 ft 475 kts 261°
2026-05-07 15:59 59.65344 -86.12285 37409 ft 475 kts 261°
2026-05-07 15:59 59.64298 -86.25166 37413 ft 475 kts 261°
2026-05-07 16:00 59.63238 -86.38076 37424 ft 475 kts 262°
2026-05-07 16:00 59.62166 -86.50955 37429 ft 475 kts 262°
2026-05-07 16:01 59.61081 -86.63846 37425 ft 476 kts 261°
2026-05-07 16:01 59.59984 -86.76719 37415 ft 476 kts 261°
2026-05-07 16:02 59.58873 -86.89591 37428 ft 475 kts 262°
2026-05-07 16:02 59.57751 -87.02438 37428 ft 475 kts 261°
2026-05-07 16:03 59.56615 -87.15280 37442 ft 475 kts 261°
2026-05-07 16:03 59.55467 -87.28101 37441 ft 475 kts 261°
2026-05-07 16:04 59.54308 -87.40922 37433 ft 475 kts 261°
2026-05-07 16:04 59.53137 -87.53731 37441 ft 474 kts 261°
2026-05-07 16:05 59.51955 -87.66509 37449 ft 474 kts 261°
2026-05-07 16:05 59.50761 -87.79261 37448 ft 474 kts 261°
2026-05-07 16:06 59.49553 -87.92032 37450 ft 474 kts 261°
2026-05-07 16:06 59.48333 -88.04782 37455 ft 474 kts 260°
2026-05-07 16:07 59.47108 -88.17434 37463 ft 473 kts 261°
2026-05-07 16:07 59.45870 -88.30120 37468 ft 473 kts 261°
2026-05-07 16:08 59.44615 -88.42817 37466 ft 473 kts 261°
2026-05-07 16:08 59.43348 -88.55501 37476 ft 473 kts 261°
2026-05-07 16:09 59.42071 -88.68158 37476 ft 473 kts 260°
2026-05-07 16:09 59.40781 -88.80816 37479 ft 473 kts 261°
2026-05-07 16:10 59.39480 -88.93453 37485 ft 472 kts 261°
2026-05-07 16:10 59.38167 -89.06086 37495 ft 472 kts 260°
2026-05-07 16:11 59.36843 -89.18695 37494 ft 472 kts 260°
2026-05-07 16:11 59.35506 -89.31303 37506 ft 472 kts 261°
2026-05-07 16:12 59.34154 -89.43913 37506 ft 473 kts 260°
2026-05-07 16:12 59.32792 -89.56496 37513 ft 472 kts 260°
2026-05-07 16:13 59.31418 -89.69073 37512 ft 472 kts 259°
2026-05-07 16:13 59.30266 -89.79519 37514 ft 472 kts 259°
2026-05-07 16:14 59.28643 -89.94111 37511 ft 472 kts 260°
2026-05-07 16:14 59.27463 -90.04611 37518 ft 472 kts 260°
2026-05-07 16:15 59.26043 -90.17150 37533 ft 473 kts 259°
2026-05-07 16:15 59.24609 -90.29697 37539 ft 473 kts 260°
2026-05-07 16:16 59.23163 -90.42229 37540 ft 473 kts 260°
2026-05-07 16:16 59.21705 -90.54755 37543 ft 473 kts 259°
2026-05-07 16:17 59.20234 -90.67268 37552 ft 473 kts 259°
2026-05-07 16:17 59.18749 -90.79789 37560 ft 474 kts 259°
2026-05-07 16:18 59.17252 -90.92303 37562 ft 474 kts 259°
2026-05-07 16:18 59.15741 -91.04814 37569 ft 474 kts 259°
2026-05-07 16:19 59.14219 -91.17315 37579 ft 474 kts 259°
2026-05-07 16:19 59.12683 -91.29811 37564 ft 474 kts 259°
2026-05-07 16:20 59.11137 -91.42287 37583 ft 474 kts 259°
2026-05-07 16:20 59.09589 -91.54675 37598 ft 474 kts 259°
2026-05-07 16:21 59.08017 -91.67146 37598 ft 475 kts 259°
2026-05-07 16:21 59.06435 -91.79586 37606 ft 474 kts 259°
2026-05-07 16:22 59.04839 -91.92033 37585 ft 474 kts 259°
2026-05-07 16:22 59.03232 -92.04463 37618 ft 474 kts 259°
2026-05-07 16:23 59.01616 -92.16862 37620 ft 474 kts 258°
2026-05-07 16:23 58.99987 -92.29251 37634 ft 473 kts 258°
2026-05-07 16:24 58.98349 -92.41611 37635 ft 473 kts 258°
2026-05-07 16:24 58.96698 -92.53966 37636 ft 474 kts 258°
2026-05-07 16:25 58.95037 -92.66299 37647 ft 473 kts 258°
2026-05-07 16:25 58.93364 -92.78620 37647 ft 473 kts 258°
2026-05-07 16:26 58.91679 -92.90937 37657 ft 473 kts 258°
2026-05-07 16:26 58.89984 -93.03221 37658 ft 473 kts 258°
2026-05-07 16:27 58.88275 -93.15517 37672 ft 473 kts 258°
2026-05-07 16:27 58.86556 -93.27789 37672 ft 473 kts 257°
2026-05-07 16:28 58.84827 -93.40029 37684 ft 472 kts 257°
2026-05-07 16:28 58.83087 -93.52261 37683 ft 472 kts 257°
2026-05-07 16:29 58.81336 -93.64475 37697 ft 472 kts 257°
2026-05-07 16:29 58.79573 -93.76679 37708 ft 472 kts 257°
2026-05-07 16:30 58.77799 -93.88870 37708 ft 472 kts 257°
2026-05-07 16:30 58.76017 -94.01019 37712 ft 471 kts 257°
2026-05-07 16:31 58.74351 -94.13199 37709 ft 468 kts 263°
2026-05-07 16:31 58.73511 -94.25527 37712 ft 467 kts 266°
2026-05-07 16:32 58.72840 -94.37949 37717 ft 467 kts 267°
2026-05-07 16:32 58.72193 -94.50377 37721 ft 466 kts 267°
2026-05-07 16:33 58.71523 -94.62761 37737 ft 465 kts 266°
2026-05-07 16:33 58.70832 -94.75119 37744 ft 465 kts 266°
2026-05-07 16:34 58.70125 -94.87482 37750 ft 465 kts 266°
2026-05-07 16:34 58.69406 -94.99834 37752 ft 465 kts 266°
2026-05-07 16:35 58.68676 -95.12177 37764 ft 464 kts 266°
2026-05-07 16:35 58.67935 -95.24485 37766 ft 463 kts 266°
2026-05-07 16:36 58.67185 -95.36773 37777 ft 463 kts 266°
2026-05-07 16:36 58.66422 -95.49061 37778 ft 463 kts 266°
2026-05-07 16:37 58.65649 -95.61334 37785 ft 463 kts 265°
2026-05-07 16:37 58.64863 -95.73611 37789 ft 463 kts 265°
2026-05-07 16:38 58.64064 -95.85887 37803 ft 463 kts 265°
2026-05-07 16:38 58.63255 -95.98149 37802 ft 463 kts 265°
2026-05-07 16:39 58.62434 -96.10414 37802 ft 463 kts 265°
2026-05-07 16:39 58.61601 -96.22679 37802 ft 463 kts 265°
2026-05-07 16:40 58.60756 -96.34928 37818 ft 463 kts 265°
2026-05-07 16:40 58.59901 -96.47160 37814 ft 463 kts 265°
2026-05-07 16:41 58.59033 -96.59394 37826 ft 463 kts 265°
2026-05-07 16:41 58.58154 -96.71617 37826 ft 463 kts 265°
2026-05-07 16:42 58.57263 -96.83842 37841 ft 463 kts 264°
2026-05-07 16:42 58.56361 -96.96053 37826 ft 463 kts 264°
2026-05-07 16:43 58.55449 -97.08243 37845 ft 462 kts 264°
2026-05-07 16:43 58.54532 -97.20337 37836 ft 462 kts 264°
2026-05-07 16:44 58.53598 -97.32497 37859 ft 462 kts 264°
2026-05-07 16:44 58.52651 -97.44662 37847 ft 462 kts 264°
2026-05-07 16:45 58.51693 -97.56819 37864 ft 462 kts 264°
2026-05-07 16:45 58.50725 -97.68944 37868 ft 461 kts 264°
2026-05-07 16:46 58.49747 -97.81053 37876 ft 461 kts 264°
2026-05-07 16:46 58.48758 -97.93153 37874 ft 461 kts 264°
2026-05-07 16:47 58.47758 -98.05247 37880 ft 461 kts 264°
2026-05-07 16:47 58.46745 -98.17340 37875 ft 461 kts 264°
2026-05-07 16:48 58.45722 -98.29416 37886 ft 460 kts 264°
2026-05-07 16:48 58.44689 -98.41463 37887 ft 460 kts 264°
2026-05-07 16:49 58.43645 -98.53508 37876 ft 460 kts 264°
2026-05-07 16:49 58.42589 -98.65551 37876 ft 460 kts 263°
2026-05-07 16:50 58.41529 -98.77507 37882 ft 460 kts 264°
2026-05-07 16:50 58.40453 -98.89513 37906 ft 459 kts 263°
2026-05-07 16:51 58.39366 -99.01503 37898 ft 459 kts 263°
2026-05-07 16:51 58.38269 -99.13485 37915 ft 459 kts 263°
2026-05-07 16:52 58.37160 -99.25460 37914 ft 459 kts 263°
2026-05-07 16:52 58.36040 -99.37428 37910 ft 459 kts 263°
2026-05-07 16:53 58.34911 -99.49369 37925 ft 457 kts 263°
2026-05-07 16:53 58.33773 -99.61272 37923 ft 457 kts 263°
2026-05-07 16:54 58.32626 -99.73158 37930 ft 457 kts 263°
2026-05-07 16:54 58.31466 -99.85052 37927 ft 457 kts 263°
2026-05-07 16:55 58.30296 -99.96930 37918 ft 457 kts 263°
2026-05-07 16:55 58.29114 -100.08803 37935 ft 457 kts 262°
2026-05-07 16:56 58.27930 -100.20576 37943 ft 457 kts 262°
2026-05-07 16:56 58.26123 -100.38340 37943 ft 457 kts 262°
2026-05-07 16:57 58.24902 -100.50192 37953 ft 457 kts 262°
2026-05-07 16:57 58.23671 -100.62027 37948 ft 457 kts 262°
2026-05-07 16:58 58.22430 -100.73839 37954 ft 457 kts 262°
2026-05-07 16:58 58.21178 -100.85647 37956 ft 457 kts 262°
2026-05-07 16:59 58.19915 -100.97453 37957 ft 457 kts 262°
2026-05-07 16:59 58.18642 -101.09237 37958 ft 457 kts 261°
2026-05-07 17:00 58.17356 -101.21023 37959 ft 456 kts 261°
2026-05-07 17:00 58.16064 -101.32768 37960 ft 455 kts 261°
2026-05-07 17:01 58.14984 -101.42501 37959 ft 455 kts 261°
2026-05-07 17:01 58.13675 -101.54207 37958 ft 455 kts 261°
2026-05-07 17:02 58.12354 -101.65918 37960 ft 455 kts 261°
2026-05-07 17:02 58.11022 -101.77613 37961 ft 455 kts 261°
2026-05-07 17:03 58.09679 -101.89309 37959 ft 455 kts 261°
2026-05-07 17:03 58.08326 -102.00988 37958 ft 455 kts 261°
2026-05-07 17:04 58.06961 -102.12670 37958 ft 455 kts 261°
2026-05-07 17:04 58.05586 -102.24331 37959 ft 455 kts 260°
2026-05-07 17:05 58.04199 -102.35993 37937 ft 455 kts 260°
2026-05-07 17:05 58.02805 -102.47614 37953 ft 453 kts 260°
2026-05-07 17:06 58.01405 -102.59199 37959 ft 453 kts 260°
2026-05-07 17:06 58.00003 -102.70702 37955 ft 453 kts 260°
2026-05-07 17:07 57.98580 -102.82275 37962 ft 453 kts 260°
2026-05-07 17:07 57.97147 -102.93837 37938 ft 453 kts 260°
2026-05-07 17:08 57.95704 -103.05388 37967 ft 453 kts 260°
2026-05-07 17:08 57.94252 -103.16917 37959 ft 453 kts 260°
2026-05-07 17:09 57.92790 -103.28441 37957 ft 453 kts 259°
2026-05-07 17:09 57.91318 -103.39953 37952 ft 453 kts 259°
2026-05-07 17:10 57.89834 -103.51456 37949 ft 453 kts 259°
2026-05-07 17:10 57.88341 -103.62948 37950 ft 452 kts 259°
2026-05-07 17:11 57.86838 -103.74426 37946 ft 452 kts 259°
2026-05-07 17:11 57.85325 -103.85889 37946 ft 452 kts 259°
2026-05-07 17:12 57.83802 -103.97346 37946 ft 452 kts 259°
2026-05-07 17:12 57.82270 -104.08786 37942 ft 452 kts 259°
2026-05-07 17:13 57.80738 -104.20138 37941 ft 451 kts 259°
2026-05-07 17:13 57.79188 -104.31536 37942 ft 451 kts 259°
2026-05-07 17:14 57.77618 -104.42998 37938 ft 451 kts 258°
2026-05-07 17:14 57.76059 -104.54299 37936 ft 451 kts 258°
2026-05-07 17:15 57.74479 -104.65662 37939 ft 451 kts 258°
2026-05-07 17:15 57.72890 -104.77013 37941 ft 450 kts 258°
2026-05-07 17:16 57.71293 -104.88321 37941 ft 449 kts 258°
2026-05-07 17:16 57.69688 -104.99614 37941 ft 449 kts 258°
2026-05-07 17:17 57.68073 -105.10899 37935 ft 449 kts 258°
2026-05-07 17:17 57.66448 -105.22180 37935 ft 450 kts 258°
2026-05-07 17:18 57.64813 -105.33442 37938 ft 449 kts 258°
2026-05-07 17:18 57.63171 -105.44670 37939 ft 448 kts 257°
2026-05-07 17:19 57.61522 -105.55874 37941 ft 448 kts 257°
2026-05-07 17:19 57.59874 -105.66996 37937 ft 448 kts 257°
2026-05-07 17:20 57.58204 -105.78190 37935 ft 448 kts 257°
2026-05-07 17:20 57.56524 -105.89367 37951 ft 448 kts 257°
2026-05-07 17:21 57.54837 -106.00522 37953 ft 447 kts 257°
2026-05-07 17:21 57.53143 -106.11648 37954 ft 447 kts 257°
2026-05-07 17:22 57.51437 -106.22774 37955 ft 447 kts 257°
2026-05-07 17:22 57.49723 -106.33881 37957 ft 447 kts 257°
2026-05-07 17:23 57.47998 -106.44984 37947 ft 447 kts 257°
2026-05-07 17:23 57.46265 -106.56067 37948 ft 447 kts 257°
2026-05-07 17:24 57.44521 -106.67139 37941 ft 446 kts 256°
2026-05-07 17:24 57.42781 -106.78120 37951 ft 447 kts 256°
2026-05-07 17:25 57.41020 -106.89164 37951 ft 447 kts 256°
2026-05-07 17:25 57.39247 -107.00205 37934 ft 446 kts 256°
2026-05-07 17:26 57.37468 -107.11220 37949 ft 446 kts 256°
2026-05-07 17:26 57.35678 -107.22227 37949 ft 446 kts 256°
2026-05-07 17:27 57.33881 -107.33212 37946 ft 446 kts 256°
2026-05-07 17:27 57.32074 -107.44187 37946 ft 446 kts 256°
2026-05-07 17:28 57.30257 -107.55161 37947 ft 446 kts 256°
2026-05-07 17:28 57.28431 -107.66119 37941 ft 446 kts 256°
2026-05-07 17:29 57.26593 -107.77076 37944 ft 446 kts 256°
2026-05-07 17:29 57.24747 -107.88014 37946 ft 446 kts 255°
2026-05-07 17:30 57.22892 -107.98940 37947 ft 446 kts 255°
2026-05-07 17:30 57.21027 -108.09865 37921 ft 446 kts 255°
2026-05-07 17:31 57.19155 -108.20755 37937 ft 445 kts 255°
2026-05-07 17:31 57.17277 -108.31617 37926 ft 445 kts 255°
2026-05-07 17:32 57.15391 -108.42464 37926 ft 445 kts 255°
2026-05-07 17:32 57.13816 -108.51472 37929 ft 445 kts 255°
2026-05-07 17:33 57.11590 -108.64129 37910 ft 445 kts 255°
2026-05-07 17:33 57.09675 -108.74939 37911 ft 444 kts 255°
2026-05-07 17:34 57.07757 -108.85709 37898 ft 443 kts 255°
2026-05-07 17:34 57.05831 -108.96458 37897 ft 443 kts 255°
2026-05-07 17:35 57.03909 -109.07127 37884 ft 443 kts 255°
2026-05-07 17:35 57.01964 -109.17860 37884 ft 443 kts 255°
2026-05-07 17:36 57.00010 -109.28577 37876 ft 443 kts 254°
2026-05-07 17:36 56.98049 -109.39275 37876 ft 442 kts 254°
2026-05-07 17:37 56.96080 -109.49950 37870 ft 442 kts 254°
2026-05-07 17:37 56.94103 -109.60613 37869 ft 442 kts 254°
2026-05-07 17:38 56.92115 -109.71279 37865 ft 442 kts 254°
2026-05-07 17:38 56.90120 -109.81919 37865 ft 442 kts 254°
2026-05-07 17:39 56.88118 -109.92535 37866 ft 441 kts 254°
2026-05-07 17:39 56.86108 -110.03134 37867 ft 441 kts 254°
2026-05-07 17:40 56.84088 -110.13726 37866 ft 441 kts 254°
2026-05-07 17:40 56.82061 -110.24304 37864 ft 441 kts 254°
2026-05-07 17:41 56.80024 -110.34868 37862 ft 440 kts 253°
2026-05-07 17:41 56.77985 -110.45382 37860 ft 439 kts 253°
2026-05-07 17:42 56.75954 -110.55804 37862 ft 439 kts 253°
2026-05-07 17:42 56.73887 -110.66354 37863 ft 439 kts 253°
2026-05-07 17:43 56.71839 -110.76748 37857 ft 439 kts 253°
2026-05-07 17:43 56.69767 -110.87207 37852 ft 439 kts 253°
2026-05-07 17:44 56.67689 -110.97645 37846 ft 439 kts 253°
2026-05-07 17:44 56.65534 -111.08027 37843 ft 441 kts 248°
2026-05-07 17:45 56.62211 -111.17452 37843 ft 447 kts 235°
2026-05-07 17:45 56.58175 -111.26066 37840 ft 449 kts 232°
2026-05-07 17:46 56.54001 -111.34503 37836 ft 449 kts 232°
2026-05-07 17:46 56.49823 -111.42928 37851 ft 449 kts 232°
2026-05-07 17:47 56.45663 -111.51361 37855 ft 449 kts 232°
2026-05-07 17:47 56.41510 -111.59785 37865 ft 449 kts 232°
2026-05-07 17:48 56.37347 -111.68204 37861 ft 449 kts 232°
2026-05-07 17:48 56.33183 -111.76595 37845 ft 449 kts 232°
2026-05-07 17:49 56.29010 -111.84969 37864 ft 449 kts 232°
2026-05-07 17:49 56.24839 -111.93311 37864 ft 448 kts 232°
2026-05-07 17:50 56.20657 -112.01644 37870 ft 449 kts 232°
2026-05-07 17:50 56.17182 -112.08548 37871 ft 449 kts 232°
2026-05-07 17:51 56.12989 -112.16851 37864 ft 449 kts 232°
2026-05-07 17:51 56.08792 -112.25132 37858 ft 449 kts 232°
2026-05-07 17:52 56.04588 -112.33399 37864 ft 449 kts 232°
2026-05-07 17:52 56.00376 -112.41650 37864 ft 449 kts 232°
2026-05-07 17:53 55.96160 -112.49883 37870 ft 449 kts 232°
2026-05-07 17:53 55.91940 -112.58096 37864 ft 449 kts 232°
2026-05-07 17:54 55.87711 -112.66296 37876 ft 449 kts 232°
2026-05-07 17:54 55.83477 -112.74478 37866 ft 449 kts 232°
2026-05-07 17:55 55.79236 -112.82645 37875 ft 449 kts 231°
2026-05-07 17:55 55.75020 -112.90736 37884 ft 449 kts 232°
2026-05-07 17:56 55.70774 -112.98855 37884 ft 449 kts 232°
2026-05-07 17:56 55.66523 -113.06958 37878 ft 449 kts 232°
2026-05-07 17:57 55.62264 -113.15047 37878 ft 449 kts 232°
2026-05-07 17:57 55.58006 -113.23108 37883 ft 449 kts 232°
2026-05-07 17:58 55.53742 -113.31153 37884 ft 449 kts 232°
2026-05-07 17:58 55.49471 -113.39183 37889 ft 449 kts 231°
2026-05-07 17:59 55.45194 -113.47195 37892 ft 448 kts 232°
2026-05-07 17:59 55.40919 -113.55177 37893 ft 448 kts 232°
2026-05-07 18:00 55.36642 -113.63140 37900 ft 448 kts 232°
2026-05-07 18:00 55.32359 -113.71083 37897 ft 448 kts 232°
2026-05-07 18:01 55.28096 -113.78964 37901 ft 449 kts 232°
2026-05-07 18:01 55.23790 -113.86895 37906 ft 449 kts 232°
2026-05-07 18:02 55.17333 -113.98738 37914 ft 448 kts 232°
2026-05-07 18:03 55.13022 -114.06614 37914 ft 448 kts 232°
2026-05-07 18:03 55.08705 -114.14475 37922 ft 448 kts 232°
2026-05-07 18:04 55.04382 -114.22320 37894 ft 448 kts 232°
2026-05-07 18:04 55.00063 -114.30132 37925 ft 447 kts 232°
2026-05-07 18:05 54.95748 -114.37911 37927 ft 446 kts 231°
2026-05-07 18:05 54.91430 -114.45672 37927 ft 446 kts 231°
2026-05-07 18:06 54.87110 -114.53410 37919 ft 446 kts 231°
2026-05-07 18:06 54.82776 -114.61149 37898 ft 447 kts 231°
2026-05-07 18:07 54.78440 -114.68862 37925 ft 446 kts 231°
2026-05-07 18:07 54.74108 -114.76545 37934 ft 445 kts 231°
2026-05-07 18:08 54.69775 -114.84204 37930 ft 446 kts 231°
2026-05-07 18:08 54.65435 -114.91853 37935 ft 446 kts 231°
2026-05-07 18:09 54.61092 -114.99482 37912 ft 445 kts 231°
2026-05-07 18:09 54.56749 -115.07085 37936 ft 444 kts 231°
2026-05-07 18:10 54.52440 -115.14603 37936 ft 444 kts 231°
2026-05-07 18:10 54.48073 -115.22201 37945 ft 444 kts 231°
2026-05-07 18:11 54.43756 -115.29688 37939 ft 444 kts 231°
2026-05-07 18:11 54.39406 -115.37207 37913 ft 444 kts 231°
2026-05-07 18:12 54.35045 -115.44721 37947 ft 444 kts 231°
2026-05-07 18:12 54.30683 -115.52212 37946 ft 444 kts 231°
2026-05-07 18:13 54.26316 -115.59689 37947 ft 444 kts 231°
2026-05-07 18:13 54.21946 -115.67148 37945 ft 444 kts 230°
2026-05-07 18:14 54.17566 -115.74599 37922 ft 444 kts 231°
2026-05-07 18:14 54.13170 -115.82006 37956 ft 445 kts 230°
2026-05-07 18:15 54.08697 -115.89311 37953 ft 446 kts 229°
2026-05-07 18:15 54.04199 -115.96577 37953 ft 446 kts 229°
2026-05-07 18:16 53.99703 -116.03832 37962 ft 446 kts 229°
2026-05-07 18:16 53.95207 -116.11081 37943 ft 445 kts 229°
2026-05-07 18:17 53.90740 -116.18265 37955 ft 446 kts 229°
2026-05-07 18:17 53.86238 -116.25485 37954 ft 446 kts 229°
2026-05-07 18:18 53.81729 -116.32694 37951 ft 446 kts 229°
2026-05-07 18:18 53.77212 -116.39892 37949 ft 446 kts 229°
2026-05-07 18:19 53.72691 -116.47073 37951 ft 446 kts 229°
2026-05-07 18:19 53.68167 -116.54236 37951 ft 446 kts 229°
2026-05-07 18:20 53.63640 -116.61383 37955 ft 446 kts 229°
2026-05-07 18:20 53.59111 -116.68512 37954 ft 446 kts 229°
2026-05-07 18:21 53.54575 -116.75629 37956 ft 446 kts 229°
2026-05-07 18:21 53.50032 -116.82734 37953 ft 446 kts 229°
2026-05-07 18:22 53.45484 -116.89827 37956 ft 446 kts 229°
2026-05-07 18:22 53.40933 -116.96903 37968 ft 446 kts 229°
2026-05-07 18:23 53.36375 -117.03967 37965 ft 446 kts 229°
2026-05-07 18:23 53.31814 -117.11014 37972 ft 446 kts 229°
2026-05-07 18:24 53.27246 -117.18044 37972 ft 446 kts 229°
2026-05-07 18:24 53.22685 -117.25046 37988 ft 445 kts 229°
2026-05-07 18:25 53.18127 -117.32028 37985 ft 445 kts 229°
2026-05-07 18:25 53.13565 -117.38996 38004 ft 445 kts 229°
2026-05-07 18:26 53.08990 -117.45958 38001 ft 446 kts 229°
2026-05-07 18:26 53.04411 -117.52898 38014 ft 445 kts 230°
2026-05-07 18:27 52.99842 -117.59810 38028 ft 444 kts 230°
2026-05-07 18:27 52.95304 -117.66653 38028 ft 444 kts 229°
2026-05-07 18:28 52.90737 -117.73532 38030 ft 444 kts 229°
2026-05-07 18:28 52.86154 -117.80400 38040 ft 444 kts 229°
2026-05-07 18:29 52.81568 -117.87250 38040 ft 443 kts 230°
2026-05-07 18:29 52.76997 -117.94069 38054 ft 443 kts 230°
2026-05-07 18:30 52.72421 -118.00871 38066 ft 443 kts 230°
2026-05-07 18:30 52.67837 -118.07664 38066 ft 443 kts 230°
2026-05-07 18:31 52.63154 -118.14296 38046 ft 449 kts 224°
2026-05-07 18:31 52.57622 -118.19373 38071 ft 459 kts 214°
2026-05-07 18:32 52.51784 -118.23742 38078 ft 462 kts 212°
2026-05-07 18:32 52.45893 -118.27970 38080 ft 462 kts 212°
2026-05-07 18:33 52.40004 -118.32204 38073 ft 462 kts 212°
2026-05-07 18:33 52.34121 -118.36484 38073 ft 463 kts 212°
2026-05-07 18:34 52.28253 -118.40749 38067 ft 461 kts 213°
2026-05-07 18:34 52.22393 -118.44998 38061 ft 460 kts 213°
2026-05-07 18:35 52.16540 -118.49233 38061 ft 460 kts 213°
2026-05-07 18:35 52.10682 -118.53457 38061 ft 460 kts 213°
2026-05-07 18:36 52.04820 -118.57660 38068 ft 461 kts 213°
2026-05-07 18:36 51.98985 -118.61830 38055 ft 460 kts 213°
2026-05-07 18:37 51.93122 -118.66011 38068 ft 460 kts 213°
2026-05-07 18:37 51.87263 -118.70186 38056 ft 460 kts 213°
2026-05-07 18:38 51.81401 -118.74362 38069 ft 461 kts 213°
2026-05-07 18:38 51.75524 -118.78529 38055 ft 461 kts 213°
2026-05-07 18:39 51.69632 -118.82697 38063 ft 461 kts 213°
2026-05-07 18:39 51.63758 -118.86827 38071 ft 460 kts 213°
2026-05-07 18:40 51.58890 -118.90243 38052 ft 460 kts 213°
2026-05-07 18:40 51.53012 -118.94351 38089 ft 461 kts 213°
2026-05-07 18:41 51.47122 -118.98470 38061 ft 461 kts 213°
2026-05-07 18:41 51.41230 -119.02581 38056 ft 462 kts 213°
2026-05-07 18:42 51.35338 -119.06667 38063 ft 461 kts 213°
2026-05-07 18:42 51.29456 -119.10742 38030 ft 461 kts 213°
2026-05-07 18:43 51.23563 -119.14820 38060 ft 462 kts 213°
2026-05-07 18:43 51.17665 -119.18881 38060 ft 462 kts 213°
2026-05-07 18:44 51.11757 -119.22927 38051 ft 463 kts 213°
2026-05-07 18:44 51.05835 -119.26977 38058 ft 463 kts 213°
2026-05-07 18:45 50.99922 -119.31010 38064 ft 463 kts 213°
2026-05-07 18:45 50.93997 -119.35040 38052 ft 463 kts 213°
2026-05-07 18:46 50.88076 -119.39077 38052 ft 463 kts 213°
2026-05-07 18:46 50.82188 -119.43074 38034 ft 464 kts 213°
2026-05-07 18:47 50.76256 -119.47086 38052 ft 464 kts 213°
2026-05-07 18:47 50.70321 -119.51083 38044 ft 464 kts 213°
2026-05-07 18:48 50.64375 -119.55075 38043 ft 464 kts 213°
2026-05-07 18:48 50.58433 -119.59058 38041 ft 464 kts 213°
2026-05-07 18:49 50.52488 -119.63027 38025 ft 464 kts 212°
2026-05-07 18:49 50.46560 -119.66971 38045 ft 462 kts 212°
2026-05-07 18:50 50.40644 -119.70906 38049 ft 462 kts 212°
2026-05-07 18:50 50.34708 -119.74845 38054 ft 463 kts 212°
2026-05-07 18:51 50.28779 -119.78761 38041 ft 463 kts 212°
2026-05-07 18:51 50.22854 -119.82663 38037 ft 461 kts 212°
2026-05-07 18:52 50.16957 -119.86536 38033 ft 459 kts 212°
2026-05-07 18:52 50.11072 -119.90394 38050 ft 459 kts 212°
2026-05-07 18:53 50.05182 -119.94246 38044 ft 459 kts 212°
2026-05-07 18:53 49.99293 -119.98086 38048 ft 459 kts 212°
2026-05-07 18:54 49.93393 -120.01922 38037 ft 459 kts 212°
2026-05-07 18:54 49.87506 -120.05737 38052 ft 458 kts 212°
2026-05-07 18:55 49.81636 -120.09533 38046 ft 457 kts 212°
2026-05-07 18:55 49.75754 -120.13331 38065 ft 458 kts 212°
2026-05-07 18:56 49.69876 -120.17117 38069 ft 458 kts 212°
2026-05-07 18:56 49.63991 -120.20894 38069 ft 456 kts 212°
2026-05-07 18:57 49.58145 -120.24627 38088 ft 454 kts 212°
2026-05-07 18:57 49.52316 -120.28349 38093 ft 453 kts 212°
2026-05-07 18:58 49.46528 -120.32037 38098 ft 454 kts 212°
2026-05-07 18:58 49.40699 -120.35735 38098 ft 453 kts 212°
2026-05-07 18:58 49.37877 -120.37767 38087 ft 441 kts 220°
2026-05-07 18:59 49.35219 -120.40118 38095 ft 440 kts 219°
2026-05-07 18:59 49.29956 -120.44844 38094 ft 437 kts 220°
2026-05-07 19:00 49.24738 -120.49635 38092 ft 437 kts 221°
2026-05-07 19:00 49.19527 -120.54428 38086 ft 437 kts 220°
2026-05-07 19:01 49.14297 -120.59196 38059 ft 438 kts 220°
2026-05-07 19:01 49.09078 -120.63939 38086 ft 435 kts 220°
2026-05-07 19:02 49.03875 -120.68662 38081 ft 435 kts 220°
2026-05-07 19:02 48.98670 -120.73371 38083 ft 436 kts 220°
2026-05-07 19:03 48.93461 -120.78073 38090 ft 436 kts 220°
2026-05-07 19:03 48.88242 -120.82780 38077 ft 436 kts 220°
2026-05-07 19:04 48.83023 -120.87461 38052 ft 434 kts 220°
2026-05-07 19:04 48.77818 -120.92104 38087 ft 435 kts 220°
2026-05-07 19:05 48.72633 -120.96756 38081 ft 437 kts 220°
2026-05-07 19:05 48.67367 -121.01469 38070 ft 439 kts 219°
2026-05-07 19:06 48.62140 -121.06126 38097 ft 437 kts 219°
2026-05-07 19:06 48.54299 -121.13081 38116 ft 435 kts 219°
2026-05-07 19:07 48.49079 -121.17698 38109 ft 435 kts 219°
2026-05-07 19:07 48.43855 -121.22306 38106 ft 435 kts 219°
2026-05-07 19:08 48.38640 -121.26904 37620 ft 432 kts 219°
2026-05-07 19:08 48.36056 -121.29169 37220 ft 428 kts 219°
2026-05-07 19:08 48.33493 -121.31417 36689 ft 426 kts 219°
2026-05-07 19:09 48.30923 -121.33675 36101 ft 427 kts 218°
2026-05-07 19:09 48.28356 -121.35932 35531 ft 428 kts 218°
2026-05-07 19:09 48.25779 -121.38193 34937 ft 429 kts 218°
2026-05-07 19:09 48.23195 -121.40454 34316 ft 431 kts 217°
2026-05-07 19:10 48.20598 -121.42722 33625 ft 433 kts 217°
2026-05-07 19:10 48.17991 -121.44995 32913 ft 434 kts 217°
2026-05-07 19:10 48.15377 -121.47270 32205 ft 436 kts 216°
2026-05-07 19:10 48.12750 -121.49552 31477 ft 438 kts 216°
2026-05-07 19:11 48.10116 -121.51838 30841 ft 438 kts 216°
2026-05-07 19:11 48.07487 -121.54116 30294 ft 436 kts 216°
2026-05-07 19:11 48.04874 -121.56375 29684 ft 433 kts 215°
2026-05-07 19:11 48.02276 -121.58620 28982 ft 431 kts 215°
2026-05-07 19:12 47.99772 -121.61020 28417 ft 423 kts 221°
2026-05-07 19:12 47.97568 -121.63845 27850 ft 415 kts 230°
2026-05-07 19:12 47.95629 -121.66963 27533 ft 404 kts 233°
2026-05-07 19:12 47.93844 -121.70115 27344 ft 392 kts 235°
2026-05-07 19:13 47.92162 -121.73242 27161 ft 381 kts 236°
2026-05-07 19:13 47.90547 -121.76308 26974 ft 371 kts 236°
2026-05-07 19:13 47.88977 -121.79300 26799 ft 362 kts 236°
2026-05-07 19:13 47.87445 -121.82206 26636 ft 352 kts 236°
2026-05-07 19:14 47.85944 -121.85034 26486 ft 343 kts 236°
2026-05-07 19:14 47.84466 -121.87801 26120 ft 341 kts 236°
2026-05-07 19:14 47.83092 -121.90699 25457 ft 344 kts 248°
2026-05-07 19:14 47.82428 -121.94104 24773 ft 345 kts 268°
2026-05-07 19:15 47.82648 -121.97600 24089 ft 345 kts 288°
2026-05-07 19:15 47.83638 -122.00801 23344 ft 338 kts 298°
2026-05-07 19:15 47.84462 -122.04019 22534 ft 333 kts 280°
2026-05-07 19:15 47.84515 -122.07497 21765 ft 333 kts 267°
2026-05-07 19:16 47.84288 -122.10973 21022 ft 341 kts 265°
2026-05-07 19:16 47.84037 -122.14472 20312 ft 348 kts 265°
2026-05-07 19:16 47.83784 -122.18091 19609 ft 354 kts 265°
2026-05-07 19:16 47.83533 -122.21767 18916 ft 359 kts 265°
2026-05-07 19:17 47.83286 -122.25493 18200 ft 363 kts 265°
2026-05-07 19:17 47.83040 -122.29253 17415 ft 366 kts 265°
2026-05-07 19:17 47.82793 -122.33030 16659 ft 368 kts 265°
2026-05-07 19:17 47.82543 -122.36821 15912 ft 364 kts 265°
2026-05-07 19:18 47.82294 -122.40491 15172 ft 349 kts 265°
2026-05-07 19:18 47.82051 -122.44016 14475 ft 336 kts 265°
2026-05-07 19:18 47.81810 -122.47455 13756 ft 334 kts 265°
2026-05-07 19:18 47.81572 -122.50919 12977 ft 339 kts 265°
2026-05-07 19:19 47.81335 -122.54429 12206 ft 342 kts 265°
2026-05-07 19:19 47.81035 -122.57944 11440 ft 345 kts 259°
2026-05-07 19:19 47.80291 -122.61346 10712 ft 348 kts 245°
2026-05-07 19:19 47.78912 -122.64296 9993 ft 347 kts 225°
2026-05-07 19:20 47.76984 -122.66281 9230 ft 332 kts 204°
2026-05-07 19:20 47.74790 -122.67069 8477 ft 320 kts 183°
2026-05-07 19:20 47.72619 -122.66716 7746 ft 310 kts 165°
2026-05-07 19:20 47.70727 -122.65313 7028 ft 302 kts 140°
2026-05-07 19:21 47.69427 -122.62937 6327 ft 296 kts 115°
2026-05-07 19:21 47.68996 -122.60073 6026 ft 275 kts 86°
2026-05-07 19:21 47.69334 -122.57410 5782 ft 254 kts 74°
2026-05-07 19:21 47.69779 -122.54971 5598 ft 236 kts 75°
2026-05-07 19:22 47.69747 -122.52620 5481 ft 225 kts 103°
2026-05-07 19:22 47.69171 -122.50535 5372 ft 213 kts 115°
2026-05-07 19:22 47.68451 -122.48693 5261 ft 200 kts 121°
2026-05-07 19:22 47.67703 -122.47048 5146 ft 189 kts 123°
2026-05-07 19:23 47.66951 -122.45483 5066 ft 179 kts 124°
2026-05-07 19:23 47.66239 -122.44014 4922 ft 173 kts 123°
2026-05-07 19:23 47.65532 -122.42525 4467 ft 182 kts 123°
2026-05-07 19:23 47.64797 -122.40930 3981 ft 192 kts 123°
2026-05-07 19:24 47.64056 -122.39285 3720 ft 188 kts 122°
2026-05-07 19:24 47.63363 -122.37735 3620 ft 177 kts 122°
2026-05-07 19:24 47.62704 -122.36252 3531 ft 168 kts 122°
2026-05-07 19:24 47.62081 -122.34843 3482 ft 159 kts 122°
2026-05-07 19:25 47.61485 -122.33496 3358 ft 154 kts 122°
2026-05-07 19:25 47.60903 -122.32189 3195 ft 149 kts 123°
2026-05-07 19:25 47.60231 -122.31101 2954 ft 142 kts 150°
2026-05-07 19:25 47.59300 -122.30693 2941 ft 140 kts 173°
2026-05-07 19:26 47.58330 -122.30652 2865 ft 141 kts 182°
2026-05-07 19:26 47.57342 -122.30691 2675 ft 140 kts 180°
2026-05-07 19:26 47.56399 -122.30698 2490 ft 133 kts 180°
2026-05-07 19:26 47.55478 -122.30704 2299 ft 132 kts 180°
2026-05-07 19:27 47.54563 -122.30712 2130 ft 132 kts 180°
2026-05-07 19:27 47.53942 -122.30716 2007 ft 132 kts 182°
2026-05-07 19:27 47.53042 -122.30724 1835 ft 131 kts 181°
2026-05-07 19:27 47.51828 -122.30734 1581 ft 130 kts 182°
2026-05-07 19:28 47.51229 -122.30739 1472 ft 130 kts 181°
2026-05-07 19:28 47.50327 -122.30743 1274 ft 129 kts 180°
2026-05-07 19:28 47.49424 -122.30732 1105 ft 131 kts 179°
2026-05-07 19:28 47.48518 -122.30729 909 ft 130 kts 181°
2026-05-07 19:29 47.47617 -122.30745 734 ft 130 kts 181°
2026-05-07 19:29 47.46717 -122.30761 549 ft 129 kts 181°
2026-05-07 19:29 47.45832 -122.30780 429 ft 115 kts 180°
2026-05-07 19:29 47.45208 -122.30785 414 ft 79 kts 180°
2026-05-07 19:30 47.44703 -122.30787 403 ft 68 kts 180°
2026-05-07 19:30 47.44364 -122.30760 395 ft 25 kts 143°
2026-05-07 19:30 47.44255 -122.30618 393 ft 21 kts 169°
2026-05-07 19:30 47.44116 -122.30570 391 ft 19 kts 165°
2026-05-07 19:31 47.43985 -122.30560 388 ft 16 kts 180°
2026-05-07 19:31 47.43871 -122.30557 386 ft 6 kts 176°
2026-05-07 19:31 47.43857 -122.30540 386 ft 1 kts 123°
2026-05-07 19:31 47.43851 -122.30511 387 ft 3 kts 102°
2026-05-07 19:32 47.43851 -122.30479 388 ft 3 kts 87°
2026-05-07 19:32 47.43855 -122.30437 388 ft 5 kts 83°
2026-05-07 19:32 47.43856 -122.30419 388 ft 0 kts 82°